ECMWFFLT1_500_spd_000.txt.gz
Wind_Speed
20 21 21 21 22 21 21 22 22 23 24 25 25 26 26 27 28 28 28 28 28 28 27 26 25 24 24 24 23 23 23 24 24 25 25 24 25 25 25 26 25 25 25 26 25 24 23 22 20 20 20 20 23 29 33 34 35 36 37 39 41 42 43
20 21 21 21 22 22 21 22 23 23 24 24 25 25 25 25 26 26 27 26 26 26 25 24 23 23 23 22 22 22 22 23 24 24 24 24 24 25 25 25 24 25 25 25 25 25 24 23 20 19 20 19 19 21 26 31 35 38 40 41 42 43 44
20 19 20 20 20 21 21 22 23 23 24 24 24 24 24 23 23 24 24 24 24 24 24 23 22 20 20 20 20 20 20 21 22 23 23 23 23 24 25 25 24 24 24 24 24 24 24 24 24 24 23 21 20 19 20 23 27 33 39 42 44 45 46
19 18 18 19 19 19 20 21 22 22 23 23 23 22 22 22 21 21 21 22 22 22 21 21 20 19 18 18 18 18 18 19 20 21 21 22 22 23 24 24 23 23 22 22 23 23 24 25 26 26 24 22 21 21 21 20 20 23 29 35 40 44 47
17 17 17 18 18 18 19 20 21 21 22 22 22 21 21 21 20 20 20 20 20 20 19 19 18 17 16 16 16 16 16 16 17 19 19 20 21 21 23 24 23 22 21 21 22 22 22 23 24 24 23 21 20 19 20 20 18 19 21 25 31 36 40
15 15 16 17 17 18 18 19 20 20 20 21 20 20 19 19 19 19 19 19 19 19 18 18 17 17 16 15 15 15 15 15 16 17 17 17 18 20 21 22 22 22 21 20 20 21 21 21 21 21 20 19 18 18 18 20 19 18 18 20 23 27 31
14 15 15 16 17 18 19 19 20 20 20 20 20 20 19 18 18 18 19 19 19 18 18 18 17 17 17 16 16 15 15 14 14 15 16 15 16 17 19 20 20 20 19 19 19 20 20 19 18 19 18 17 17 16 17 19 19 18 18 18 19 22 26
14 15 16 16 17 18 19 20 20 20 21 21 21 20 20 20 19 19 19 19 18 18 17 17 16 16 16 16 16 16 15 14 13 13 14 14 14 15 16 17 17 17 17 17 17 18 18 18 16 16 17 16 16 16 16 18 19 18 18 18 19 20 21
16 16 16 17 17 18 19 19 20 21 21 21 21 21 21 21 21 20 20 20 19 19 18 17 16 15 15 15 15 15 14 14 13 13 13 14 14 14 15 15 15 14 14 14 15 16 17 16 15 15 15 15 15 15 15 16 17 17 16 17 19 19 19
17 17 17 18 18 18 18 19 20 21 21 21 21 21 21 21 21 21 21 21 21 20 19 18 17 16 15 15 14 13 13 12 12 12 13 14 15 15 15 15 15 14 13 13 13 14 15 15 14 13 14 14 14 14 14 15 15 15 15 16 17 17 17
19 19 19 20 20 19 19 20 21 21 20 20 20 20 21 21 21 22 22 22 21 21 21 20 19 18 17 17 16 15 14 13 12 12 12 13 14 15 16 16 16 16 14 14 14 14 14 14 14 13 13 13 14 14 14 14 14 14 13 15 16 16 16
22 22 22 22 22 22 21 21 21 21 20 19 19 21 22 22 22 23 23 23 22 22 22 21 20 20 19 19 19 18 17 16 15 14 14 14 14 15 16 17 17 17 17 16 15 15 15 15 15 15 14 14 14 15 15 15 15 15 14 15 16 16 16
24 24 23 22 23 23 23 23 23 22 20 19 20 21 22 22 22 22 23 23 23 23 22 22 21 21 20 19 19 19 19 18 18 17 17 16 16 16 17 18 18 18 19 18 17 17 17 17 18 18 17 17 17 17 17 17 18 17 17 17 18 18 18
26 25 24 23 23 22 23 24 24 23 21 19 19 20 21 21 21 22 22 22 22 23 23 23 22 22 21 20 19 19 19 19 18 18 18 18 18 18 18 19 19 19 20 20 20 20 20 20 20 20 20 20 20 20 19 20 20 20 20 20 20 21 21
29 28 27 27 26 24 24 24 24 22 20 19 19 20 21 21 21 21 21 21 22 23 23 23 23 23 23 22 21 19 19 19 19 18 18 18 18 18 18 19 20 20 21 22 22 23 23 23 23 23 23 23 23 23 23 22 22 22 22 22 22 23 23
31 32 31 30 29 26 25 24 23 21 20 20 21 22 23 23 23 23 23 22 22 23 23 23 23 24 24 23 22 21 20 20 19 19 19 19 19 19 20 20 20 20 21 22 23 24 25 26 26 26 26 26 26 26 26 26 26 25 25 25 25 25 26
32 33 33 33 31 29 28 26 24 24 24 24 24 25 26 25 24 24 25 25 25 25 25 25 25 25 24 24 23 23 22 22 21 21 21 22 22 22 23 23 22 22 23 23 23 24 25 26 27 28 29 29 29 29 29 30 30 29 28 28 28 29 29
35 34 34 34 33 32 32 31 31 30 30 30 29 28 28 27 26 25 26 28 29 29 28 27 26 25 25 25 25 24 23 23 23 23 24 25 26 26 26 26 26 26 26 26 26 26 26 27 28 29 29 30 30 31 31 31 32 33 33 32 32 32 32
37 37 37 36 35 34 33 34 37 37 35 35 34 32 30 30 30 29 28 30 30 30 30 30 28 27 27 27 27 26 26 26 26 26 28 29 30 30 30 30 30 29 29 30 30 30 29 29 30 30 31 31 32 32 32 32 33 33 34 35 35 35 35
38 39 38 36 36 37 37 38 39 39 39 39 37 35 34 32 31 31 31 31 31 31 31 30 29 29 29 30 30 30 30 30 30 30 30 31 32 33 33 33 32 31 31 31 32 32 32 32 32 32 32 33 33 34 34 34 34 34 34 34 35 36 36
39 39 39 39 39 40 42 41 41 41 41 41 39 36 35 35 34 34 34 34 34 33 33 32 31 30 30 31 32 32 32 33 33 32 31 32 34 35 36 36 35 34 34 34 34 34 34 34 34 34 34 34 35 36 36 36 36 36 36 36 36 36 36
43 43 43 43 41 41 42 43 43 42 42 44 44 42 40 39 40 39 37 36 36 36 36 36 35 33 32 32 33 34 34 35 35 35 35 35 37 39 40 40 39 38 37 37 38 37 36 35 35 35 35 35 36 36 37 38 38 38 38 38 37 38 37
45 46 46 47 46 45 46 47 47 46 45 46 47 48 47 46 47 47 44 39 38 38 38 38 38 38 35 34 35 35 37 38 38 39 39 39 40 40 40 40 39 39 39 39 40 40 38 36 35 35 36 37 38 38 38 38 39 40 40 39 39 39 38
48 49 49 50 50 50 50 51 51 50 49 49 49 50 51 51 51 51 47 43 41 39 39 38 39 41 39 36 36 36 37 38 39 41 42 42 41 40 40 41 41 40 40 41 42 41 38 37 37 38 40 41 41 41 41 40 40 40 41 41 41 41 40
50 51 51 51 52 52 53 53 54 53 53 53 53 53 53 53 53 52 50 49 47 45 43 42 41 43 43 41 41 40 39 40 41 43 44 44 44 43 43 45 44 43 43 44 43 41 39 40 43 45 46 46 45 45 44 43 42 42 42 42 42 42 43
50 51 51 52 53 54 55 55 55 56 55 54 55 55 55 54 54 53 51 51 50 48 47 47 46 45 46 45 45 45 44 44 45 45 46 47 47 47 47 48 48 47 47 47 46 46 46 48 49 50 50 49 47 46 46 45 45 45 44 44 43 43 43
53 54 54 54 54 55 56 57 57 57 58 58 58 58 56 53 51 51 51 51 51 48 47 47 48 47 47 48 49 49 48 48 49 49 48 48 49 50 50 51 51 50 50 51 52 53 53 53 52 50 49 48 47 47 47 46 46 46 46 46 46 45 45
54 56 57 57 57 57 57 59 60 60 59 60 60 60 59 56 52 51 51 52 51 49 48 48 48 48 49 50 52 53 52 52 52 52 50 49 50 52 52 52 53 53 53 54 56 56 55 54 52 50 48 48 47 48 48 48 49 49 48 48 47 48 48
53 54 56 57 58 59 59 60 61 61 61 60 61 61 61 60 56 55 55 54 52 51 50 50 50 50 51 51 52 54 55 55 54 54 53 52 53 53 52 53 53 53 54 56 57 57 56 54 53 53 53 53 52 51 50 50 50 50 50 49 49 49 49
52 53 54 55 57 58 59 60 61 62 62 63 63 63 63 62 61 59 58 56 55 53 51 50 50 50 51 51 51 52 52 52 53 54 54 54 53 51 51 51 52 52 52 53 53 54 54 54 55 56 56 54 53 51 50 50 50 49 49 50 50 50 50
53 54 54 55 55 56 57 58 58 60 61 62 63 63 62 63 62 61 59 57 55 54 53 53 52 51 50 49 48 49 49 50 51 53 53 53 52 51 51 50 50 50 50 50 52 53 54 55 55 54 52 51 50 50 50 50 50 50 50 50 50 51 52
54 55 55 56 56 57 57 58 58 58 59 59 60 60 60 60 60 59 57 56 55 54 54 54 53 52 50 49 48 49 49 50 51 51 51 51 51 51 51 50 50 51 52 53 55 55 55 54 52 49 49 50 51 51 52 51 51 51 51 50 51 52 53
55 55 55 56 57 57 58 58 58 58 58 58 58 58 58 58 56 55 54 54 54 54 54 53 53 52 51 51 50 50 50 50 50 50 50 50 50 51 51 51 51 52 53 53 53 54 54 53 51 51 52 52 52 52 52 51 51 51 50 50 50 51 52
53 54 54 55 56 56 57 57 57 57 57 57 57 57 57 56 55 53 52 52 52 52 52 52 52 51 51 51 51 50 49 49 49 49 50 50 51 51 52 52 51 51 51 51 52 53 53 53 54 54 53 53 52 51 50 50 49 49 49 50 50 50 51
51 52 52 53 53 54 54 55 55 55 55 55 56 56 55 55 54 53 52 51 51 51 51 51 51 51 50 50 50 50 49 49 49 50 50 51 51 51 52 52 51 51 51 52 53 53 53 54 54 54 53 52 51 49 48 48 48 48 49 50 50 51 52
50 50 50 51 52 52 52 52 53 53 53 53 54 54 53 52 52 51 51 50 50 50 51 50 50 50 50 50 50 51 51 51 50 50 50 50 50 51 51 51 50 50 52 52 53 53 53 53 53 52 52 51 49 47 47 48 49 50 51 53 54 55 56
49 49 49 49 50 50 50 50 50 50 51 51 52 52 51 50 50 50 49 49 49 50 50 50 50 50 50 50 51 51 51 51 50 50 49 49 50 50 50 50 50 50 51 51 51 52 52 53 52 52 51 49 48 48 49 51 53 55 56 58 59 60 60

ECMWFFLT1_500_spd_003.txt.gz
Wind_Speed
17 16 15 15 15 15 15 16 16 16 16 17 17 18 18 18 18 19 20 20 20 20 20 20 20 20 20 20 20 19 18 18 18 18 18 18 19 20 20 20 19 19 20 19 20 20 21 21 21 20 20 20 19 17 15 16 17 20 24 29 30 32 36
18 17 16 15 14 14 14 15 16 16 17 17 17 18 18 18 18 19 19 19 19 20 20 20 19 19 18 19 19 18 17 17 17 17 17 18 19 20 20 21 20 19 20 20 19 19 20 21 22 22 21 20 18 16 16 16 16 16 19 24 28 30 33
19 18 17 16 14 13 14 14 14 15 16 16 17 17 18 18 18 18 18 19 19 19 19 18 18 18 17 17 18 18 16 16 16 16 17 18 19 19 20 20 20 20 20 20 19 19 20 20 21 22 21 20 20 19 19 19 18 17 17 18 23 27 30
20 20 19 16 14 13 13 14 14 14 14 15 15 16 17 17 17 17 17 18 17 17 17 17 16 16 16 15 15 16 16 15 15 15 16 17 18 18 18 19 20 20 20 20 19 19 19 19 20 20 20 20 21 22 22 22 21 19 18 17 19 23 26
21 19 18 16 14 12 12 13 13 13 13 13 14 15 15 15 15 15 16 16 16 15 15 15 14 14 14 14 13 13 14 14 14 15 15 16 17 17 17 18 19 19 19 19 18 18 19 19 19 19 19 19 20 21 22 22 21 20 18 17 16 18 21
20 18 17 15 13 11 12 13 13 12 12 13 13 14 14 14 14 14 14 14 14 14 14 13 13 13 12 12 12 12 12 12 13 14 14 15 16 17 16 16 17 17 17 17 16 16 17 18 18 17 17 17 19 20 20 21 21 20 18 17 16 15 16
18 16 17 15 12 11 11 13 13 13 13 13 14 14 14 14 14 14 13 13 14 14 14 13 13 12 12 11 11 11 10 11 11 12 13 13 14 15 14 14 15 15 15 15 14 14 15 15 16 15 15 15 16 17 18 18 19 20 19 17 16 15 14
15 14 16 15 12 11 11 12 13 13 14 14 14 14 14 14 14 14 14 13 13 13 13 13 13 13 12 11 11 10 10 10 10 10 11 12 12 12 12 12 12 12 12 13 12 12 12 13 13 13 13 13 14 14 15 17 18 19 19 18 17 16 16
15 13 15 15 13 11 10 12 13 14 14 14 14 14 14 14 14 13 13 12 12 12 13 13 14 14 13 13 12 11 11 10 10 10 10 11 11 11 11 11 11 11 10 10 10 10 11 11 11 11 11 12 12 12 13 14 16 17 18 18 17 17 17
17 14 14 14 13 11 11 12 14 15 15 15 15 15 14 13 13 12 12 12 12 12 13 13 14 14 14 14 13 13 12 11 11 11 10 10 11 11 11 10 11 11 10 10 10 10 10 10 10 10 10 11 11 11 11 12 13 15 16 16 16 16 17
19 17 15 13 13 13 13 13 14 16 17 16 16 16 15 14 13 13 13 13 13 13 13 14 14 14 15 14 14 14 13 13 12 12 12 12 11 12 12 11 11 11 11 11 10 10 10 10 10 10 10 10 11 11 11 11 11 12 14 14 14 15 16
22 20 17 15 13 14 16 15 14 16 17 17 17 17 17 16 15 16 15 15 15 15 15 15 15 15 15 15 15 15 15 15 14 14 14 13 13 14 14 14 13 12 12 12 12 11 11 11 11 11 11 11 11 12 12 12 12 12 14 14 14 14 15
21 19 19 18 16 16 17 17 16 16 18 19 19 19 18 17 18 17 17 16 16 16 16 16 16 16 16 16 15 16 15 15 15 15 15 15 15 15 15 15 15 15 14 14 14 13 13 12 13 13 13 13 13 13 13 14 15 15 15 16 16 16 16
21 20 22 21 19 19 20 20 18 17 17 20 22 21 20 19 18 17 17 18 18 17 17 17 17 17 17 17 17 17 16 16 16 15 15 15 14 15 15 16 16 16 16 15 15 15 15 15 15 15 15 15 15 15 15 16 16 17 18 18 19 19 19
24 24 25 25 24 22 23 23 21 18 18 19 20 20 20 20 19 18 19 20 20 20 20 20 20 19 19 19 19 18 17 16 16 16 15 15 14 14 14 15 15 15 15 15 15 15 15 16 16 17 17 17 18 18 18 18 19 19 20 21 21 21 22
27 28 28 28 27 24 24 25 23 22 21 19 18 19 20 20 20 20 20 21 22 23 23 22 22 21 21 20 20 20 19 18 17 17 16 16 16 16 15 14 15 15 15 16 16 16 16 17 17 17 18 18 19 19 20 21 21 22 23 23 24 24 24
29 30 30 30 29 27 26 26 25 24 24 23 21 20 22 22 22 23 23 23 24 24 24 25 25 25 24 23 21 21 21 21 20 19 18 18 18 18 17 17 16 16 17 17 18 19 20 20 20 20 21 21 21 21 21 22 22 22 24 25 26 27 27
32 32 32 33 32 31 30 30 31 29 27 26 25 24 25 26 27 27 27 27 27 27 27 28 28 29 28 26 24 24 23 22 22 21 21 21 20 20 20 20 19 19 19 20 20 22 23 24 24 24 24 24 25 25 25 25 24 24 24 25 27 28 29
36 36 35 35 35 34 33 34 35 35 33 31 30 28 28 30 30 30 30 31 31 32 33 33 33 33 32 30 28 27 26 25 24 24 23 23 23 23 24 24 23 22 22 22 22 23 25 26 27 27 27 28 28 28 28 28 28 27 26 26 27 29 30
34 36 37 36 36 36 36 35 35 35 36 36 34 31 30 32 33 34 34 34 34 36 37 34 31 30 30 31 30 29 28 28 28 27 26 26 26 27 27 28 27 26 25 25 25 26 28 29 29 30 30 30 31 31 31 31 30 30 30 29 29 29 30
35 35 35 34 34 36 36 35 34 35 36 36 36 35 35 36 36 36 36 36 35 36 35 33 30 28 29 31 31 31 30 29 29 29 29 29 29 29 29 30 29 29 28 29 29 30 30 30 30 31 31 32 32 33 33 33 33 33 32 32 31 31 31
42 39 36 33 33 35 36 36 35 37 37 38 39 40 39 38 38 38 38 38 37 37 37 38 39 37 35 34 32 33 33 33 33 32 31 31 31 30 30 31 31 32 32 33 33 32 32 31 31 31 32 33 34 34 35 35 35 34 33 33 33 33 33
47 46 45 44 41 39 40 40 40 41 42 42 42 42 41 40 42 42 41 40 40 41 41 43 44 42 40 38 34 33 33 35 36 36 34 34 34 33 33 33 33 34 34 35 36 35 35 34 34 34 35 36 36 37 36 35 34 34 34 35 35 36 36
51 51 52 51 47 43 42 43 43 43 44 43 43 42 42 44 45 45 44 43 44 44 44 46 46 46 45 44 42 38 36 37 38 38 37 37 36 35 34 34 34 35 37 38 38 38 39 38 38 38 37 38 39 40 39 38 38 38 38 38 39 40 40
54 55 55 54 52 49 48 48 48 48 47 46 46 46 46 46 46 46 47 47 47 46 47 47 48 48 48 48 48 46 43 43 43 42 41 41 39 38 37 37 39 41 42 42 41 41 42 42 41 41 40 40 41 41 42 43 44 45 45 44 43 43 43
53 54 54 55 55 55 55 55 55 55 54 52 51 51 50 50 50 49 50 50 49 48 48 48 48 48 48 48 48 48 47 46 45 44 44 43 43 42 42 43 46 47 46 45 44 44 44 43 42 42 42 42 43 44 45 46 48 49 49 48 47 46 45
48 49 50 52 53 54 55 56 57 58 58 57 55 54 53 52 52 52 52 52 52 51 50 49 49 49 49 49 49 48 47 45 45 45 45 44 44 44 44 46 48 48 48 47 46 45 45 45 44 44 44 45 46 47 47 49 51 52 52 51 50 48 47
47 48 49 50 50 51 52 53 54 55 56 57 57 56 55 54 54 53 53 53 54 54 54 53 52 51 51 50 50 50 48 47 48 48 47 47 48 47 46 47 48 48 48 48 47 46 46 46 46 46 47 47 48 48 49 50 51 51 51 51 51 50 49
51 51 51 51 51 51 51 52 52 52 53 55 56 56 56 56 56 55 55 54 54 55 55 55 55 54 54 53 53 53 52 51 51 50 49 49 50 49 48 49 49 48 48 48 48 48 48 48 48 48 48 48 48 49 49 49 49 49 49 50 50 50 50
54 52 52 52 52 52 52 52 52 52 52 53 54 54 55 55 55 55 55 54 54 55 55 55 55 55 56 56 55 55 54 52 51 51 51 50 51 50 50 50 49 48 48 48 48 49 49 49 48 48 48 48 48 48 48 48 48 49 50 51 52 51 51
53 52 52 52 53 52 52 52 52 52 52 53 53 53 53 52 52 52 53 53 53 54 54 54 54 53 53 53 53 53 53 53 52 51 50 49 49 49 49 49 48 48 48 48 48 48 48 48 48 48 47 47 47 48 49 50 51 52 52 52 51 50 50
51 51 52 53 53 53 53 52 52 53 53 53 53 53 53 52 52 52 52 53 54 54 55 55 54 53 52 52 51 50 50 51 51 49 48 48 48 49 49 48 48 47 47 47 48 47 47 47 47 47 47 47 48 49 50 52 52 53 53 51 50 49 49
51 51 51 52 52 52 52 53 53 54 54 54 54 54 54 53 53 54 54 54 55 55 55 55 54 54 53 51 50 48 48 48 48 47 47 48 48 48 47 47 46 46 46 47 47 47 47 48 48 48 48 49 50 51 52 53 53 53 53 51 50 50 51
50 50 50 50 50 50 50 51 52 53 53 54 53 52 52 52 52 52 53 53 53 54 53 53 53 52 51 50 49 48 47 46 46 46 47 47 48 47 46 46 46 46 46 47 48 48 48 49 49 50 51 51 52 52 53 53 53 53 52 52 52 52 53
49 49 49 49 48 48 48 48 48 49 50 50 50 49 50 49 49 50 50 51 51 51 50 49 49 49 49 48 47 46 46 46 46 46 46 47 48 48 47 47 47 47 47 48 48 49 49 50 51 51 52 52 53 53 53 53 53 52 52 52 52 53 53
49 48 48 48 48 47 47 46 46 46 47 47 47 47 48 48 48 49 49 49 49 48 47 46 46 46 46 45 45 44 45 45 45 45 46 47 47 48 47 46 46 47 47 48 49 49 50 50 51 51 51 52 52 52 52 53 53 53 53 53 53 52 52
49 48 48 48 48 47 46 45 45 45 44 44 44 46 46 47 47 47 47 47 47 46 45 44 43 43 44 44 44 44 44 44 44 44 45 45 46 46 46 46 46 46 47 48 48 48 48 48 48 49 49 49 50 51 51 52 52 52 53 53 53 53 52

ECMWFFLT1_500_spd_006.txt.gz
Wind_Speed
15 13 13 12 11 13 15 15 14 13 13 12 12 12 12 12 12 13 13 14 14 14 14 14 14 14 15 15 16 16 17 17 18 18 19 19 20 19 19 20 20 20 20 21 22 22 22 22 21 21 22 23 22 22 22 21 21 23 23 24 25 26 27
17 15 14 13 13 14 16 16 15 13 12 12 12 11 12 12 12 12 13 13 14 14 14 14 14 14 14 15 15 16 17 17 18 19 20 21 21 21 21 21 21 21 21 21 22 22 22 21 21 21 22 23 23 23 23 22 21 20 20 21 21 22 24
19 17 16 14 13 14 16 17 16 13 12 12 11 11 11 11 12 12 12 13 13 13 13 13 13 13 14 14 15 16 16 17 18 19 20 21 21 22 22 22 21 21 21 21 22 23 22 21 21 21 22 23 24 24 24 23 22 22 20 20 20 20 21
20 18 17 15 13 13 15 16 16 13 12 12 11 10 10 10 11 11 11 11 11 11 11 11 11 11 12 13 13 14 15 16 17 18 19 20 21 21 21 21 20 20 20 20 21 22 21 20 20 21 21 22 23 24 25 25 24 24 23 22 21 21 21
19 19 18 16 13 12 13 15 15 14 12 11 10 9 9 9 9 10 10 10 9 9 9 9 9 9 10 11 12 12 13 14 15 16 17 18 19 20 20 19 19 19 19 19 19 20 20 19 19 20 21 21 22 23 24 25 25 25 25 24 23 22 22
18 18 17 15 13 11 12 14 15 14 11 9 9 8 8 9 9 9 9 9 9 9 8 8 7 8 8 9 10 11 12 12 14 15 15 16 17 18 18 18 17 17 17 16 16 17 17 17 18 19 19 20 21 21 22 23 24 24 25 24 23 23 23
16 18 16 14 12 11 12 13 14 13 11 8 7 8 8 9 9 9 9 9 9 8 8 7 7 7 7 8 9 9 10 11 12 13 14 14 15 16 16 15 15 14 14 13 12 12 13 14 15 16 17 17 18 19 20 21 21 22 22 22 22 21 22
15 16 15 13 12 12 12 13 14 13 10 7 6 7 8 9 9 9 9 9 8 8 8 7 7 7 7 7 8 8 9 10 11 12 12 13 14 14 14 13 13 12 12 11 10 9 9 10 11 12 13 14 15 16 17 17 18 18 19 19 19 19 19
17 17 14 13 13 14 14 13 13 12 10 7 6 7 7 8 9 9 9 8 8 8 8 8 7 7 7 7 7 8 9 9 10 11 12 13 13 13 13 13 12 12 11 10 9 8 8 8 8 9 9 10 12 13 13 14 14 15 16 17 17 17 18
19 17 14 14 14 15 15 14 12 11 11 9 8 8 8 8 9 10 10 9 9 10 10 10 9 9 8 8 8 8 9 10 11 11 12 13 13 13 13 13 13 12 12 11 10 9 9 8 8 8 9 9 10 10 11 11 11 11 13 14 14 15 16
20 18 16 14 15 16 16 15 14 13 12 12 11 9 9 9 10 10 11 11 12 12 12 12 12 12 11 11 10 9 10 10 11 12 13 14 14 14 14 13 13 12 12 12 11 11 11 10 10 9 10 10 10 10 10 10 10 9 10 11 12 12 14
18 18 18 16 17 18 18 17 16 15 13 12 11 10 9 9 10 11 12 13 13 13 13 13 13 13 13 13 12 12 11 11 11 12 13 14 15 16 15 15 14 14 13 12 12 12 12 11 11 11 11 11 11 11 11 11 11 10 11 11 11 11 12
16 17 18 19 20 21 20 18 17 15 14 13 12 11 11 10 11 12 13 14 14 13 12 12 12 12 13 14 14 14 13 12 12 12 13 14 15 16 17 17 16 16 15 14 13 13 12 12 12 12 12 12 12 12 13 13 13 12 13 13 13 13 13
18 19 19 20 21 22 21 19 18 16 15 14 14 14 14 13 12 12 13 14 14 14 13 12 12 12 12 13 15 16 15 15 15 14 14 15 15 16 17 17 17 17 16 15 14 13 13 14 14 13 14 14 14 14 14 15 15 15 15 15 16 16 16
23 23 21 21 22 23 23 21 19 17 16 16 16 17 17 16 14 13 14 14 14 14 13 13 14 14 14 15 15 16 16 17 17 17 17 17 17 17 17 17 17 17 17 16 15 14 14 13 14 14 14 14 15 15 15 16 17 18 18 18 18 18 19
26 25 24 24 23 24 24 24 22 19 18 17 17 18 19 18 17 16 15 16 16 15 16 17 17 17 17 17 17 17 17 18 19 19 20 20 20 20 19 18 18 17 17 17 16 16 15 14 13 14 14 14 15 15 16 16 17 18 20 20 20 21 21
26 25 26 26 26 25 25 25 24 22 20 20 19 19 20 21 20 19 18 19 20 20 20 21 21 21 21 21 21 20 20 20 21 21 22 22 22 22 22 21 21 20 19 19 18 18 17 16 16 15 15 15 16 16 17 18 18 19 20 22 23 23 23
24 25 26 27 28 29 28 27 27 25 24 24 24 24 23 23 22 22 22 23 24 25 25 25 24 24 25 26 25 25 24 23 24 24 24 24 24 25 25 24 23 23 22 21 20 20 19 19 19 18 18 18 18 19 19 20 20 21 22 23 24 25 25
26 28 27 26 27 28 29 27 26 26 26 27 28 28 27 27 27 27 26 26 26 27 28 28 28 28 29 31 32 33 33 30 27 25 25 25 25 26 27 26 25 24 24 24 23 22 22 22 21 20 20 20 21 22 22 22 23 23 24 24 25 26 27
29 30 29 27 27 26 26 26 25 25 28 29 30 30 30 29 30 30 29 29 28 28 29 30 31 31 32 33 33 33 33 31 27 24 24 26 26 27 28 29 28 27 26 26 26 25 25 25 24 23 23 24 24 24 24 24 24 24 25 26 27 28 29
28 29 29 29 28 28 29 30 30 30 31 30 28 29 31 31 31 31 31 30 29 29 31 33 34 34 33 33 33 31 30 28 26 25 25 25 26 28 29 30 30 30 30 30 30 29 29 28 27 27 26 27 26 25 25 26 26 26 27 27 28 29 31
26 25 26 27 26 24 25 28 30 32 32 28 26 28 31 32 33 33 33 31 31 32 34 36 37 37 36 36 36 36 34 31 30 30 30 29 28 29 30 31 32 32 33 34 33 33 33 32 31 31 31 30 29 28 28 29 30 30 31 31 32 33 33
32 31 33 34 31 28 29 31 33 35 36 35 35 35 34 34 35 37 37 36 37 38 39 39 40 39 39 39 40 40 39 36 35 35 35 35 34 33 32 33 33 34 35 36 36 37 36 36 35 35 34 33 32 33 34 34 35 35 35 36 36 36 36
37 40 42 42 40 40 41 41 40 40 41 43 45 44 42 42 43 43 42 40 39 39 39 40 42 42 42 42 42 43 42 41 40 39 38 38 38 38 37 37 36 37 37 37 39 40 40 39 39 38 37 36 37 39 40 40 40 40 39 39 39 39 38
39 41 43 43 43 43 43 43 43 43 44 46 48 48 48 48 48 47 46 45 44 43 43 44 45 47 47 47 47 47 46 44 43 42 41 41 40 40 40 39 38 38 38 40 42 42 42 42 42 42 42 43 44 46 46 45 44 43 41 41 40 40 41
41 42 42 41 40 40 41 42 43 44 45 47 48 48 48 48 48 48 49 50 50 49 49 49 49 51 51 50 50 50 48 47 45 44 44 43 42 42 41 40 39 38 38 41 42 41 41 43 44 45 47 48 48 48 47 46 46 45 44 43 42 42 43
42 42 41 40 40 40 41 42 43 45 46 46 46 46 46 46 46 47 48 50 51 52 51 51 51 52 52 51 51 50 49 47 47 47 47 46 46 45 45 44 42 40 40 42 43 43 43 44 45 46 47 47 48 47 47 46 46 46 46 45 45 45 45
42 42 42 41 42 43 43 44 45 46 47 47 48 48 48 48 47 47 47 47 48 49 49 49 49 50 50 51 51 51 51 51 51 51 51 50 50 49 49 48 47 46 46 47 47 47 46 45 45 46 47 47 47 47 47 47 47 47 47 47 48 47 47
43 43 43 44 45 46 47 47 48 49 49 50 52 52 52 51 49 48 47 47 46 47 47 47 47 47 48 49 50 51 52 53 53 52 52 52 52 51 51 51 50 50 50 51 50 50 48 47 48 49 49 49 49 49 49 49 49 49 49 49 49 48 48
47 47 47 48 49 50 50 51 51 51 51 52 53 53 53 52 51 50 49 48 47 47 47 47 47 47 47 48 49 49 50 51 51 51 51 51 51 51 51 50 50 51 52 52 52 52 51 51 51 51 51 51 51 51 51 51 51 51 50 50 49 49 49
52 52 52 53 53 53 52 52 52 52 53 53 53 53 52 52 52 51 50 50 49 48 48 48 48 48 48 48 48 49 50 50 50 51 51 51 51 51 50 50 50 50 51 52 52 52 52 52 52 52 52 52 52 51 51 51 51 51 50 50 49 49 49
56 56 55 55 54 53 52 52 53 54 54 54 54 53 52 52 52 52 52 51 51 51 51 50 50 49 49 50 50 50 51 51 52 52 52 52 52 52 52 51 50 50 50 51 51 51 52 52 52 52 52 51 51 50 50 50 50 50 49 49 49 50 50
55 55 54 54 53 53 52 53 54 55 55 55 55 54 52 52 52 53 53 53 53 53 53 53 52 52 52 52 52 52 51 51 50 51 51 51 51 51 52 52 51 50 50 50 50 50 51 52 52 52 51 50 50 50 50 50 50 50 49 49 50 50 51
58 57 55 55 55 55 55 55 54 55 55 55 54 54 53 52 53 53 54 54 54 53 53 52 52 52 51 51 50 49 48 47 47 47 47 48 48 48 49 50 50 50 50 50 50 51 51 51 51 51 50 50 50 51 51 51 50 51 51 51 51 52 53
62 61 59 59 59 59 58 57 55 54 54 53 53 53 53 52 52 53 53 53 52 51 50 50 49 49 48 48 47 46 45 45 45 45 45 45 45 46 47 47 48 49 49 50 50 50 50 50 51 50 50 51 51 52 51 51 51 52 52 52 53 54 55
64 65 64 64 63 62 61 59 58 55 52 51 51 51 51 50 50 51 51 52 51 50 49 48 48 47 47 46 45 45 45 44 44 44 44 44 44 44 46 47 47 48 49 49 49 49 49 50 50 50 51 51 51 51 51 51 51 52 52 53 54 55 56
66 67 68 68 67 65 63 61 60 57 54 51 49 48 47 48 48 49 50 50 50 49 49 48 48 47 46 46 45 44 44 44 44 43 43 43 43 44 45 46 47 47 47 48 48 48 48 49 49 50 50 50 49 49 49 49 50 51 51 52 52 53 54

ECMWFFLT1_500_spd_009.txt.gz
Wind_Speed
17 20 21 18 17 18 18 17 16 14 13 13 13 13 13 13 13 13 14 14 14 14 15 15 16 17 17 18 19 20 20 21 21 22 21 21 22 24 24 24 24 24 25 25 25 24 24 24 24 24 25 25 26 26 27 28 29 29 27 27 27 28 28
23 25 24 20 18 18 18 17 16 14 13 13 13 13 13 12 12 12 13 13 14 14 14 15 15 16 17 17 18 19 20 20 21 21 21 22 23 24 24 25 25 25 25 26 26 26 25 25 25 25 26 25 25 26 26 28 29 28 27 27 27 27 28
23 24 22 21 20 19 18 17 16 14 13 13 13 13 12 11 11 11 11 12 13 13 14 14 15 15 16 16 17 18 18 19 20 21 21 22 22 23 24 24 25 25 25 26 26 26 26 26 26 26 26 26 25 25 26 26 27 27 27 27 27 27 27
21 22 21 21 20 19 18 17 16 15 13 13 14 13 12 11 10 9 9 10 11 11 12 13 13 14 14 15 15 16 17 17 18 19 20 21 22 23 23 24 24 24 24 25 25 26 26 26 26 27 27 26 25 25 26 26 26 27 28 28 28 27 26
20 21 20 20 20 19 17 16 15 14 13 12 14 13 12 11 10 9 8 8 8 9 10 10 11 12 12 13 14 14 15 16 16 17 18 19 20 21 22 22 22 21 22 22 23 23 24 24 25 25 25 25 25 25 25 25 25 27 28 29 29 29 28
20 22 20 19 18 17 16 15 15 15 13 11 12 13 12 11 9 9 8 8 8 8 8 8 9 10 11 11 12 13 14 14 15 15 16 17 18 19 19 19 19 19 19 19 20 20 21 21 22 22 23 23 23 23 23 24 25 25 26 28 28 29 29
19 21 20 16 15 16 15 15 16 15 13 11 11 12 12 11 9 9 8 8 9 9 8 8 8 8 9 9 10 11 12 12 13 14 15 15 16 16 17 17 17 17 17 17 18 18 18 19 19 20 20 20 21 21 21 21 23 24 24 25 26 27 28
21 21 19 15 14 16 17 15 15 14 14 12 11 12 12 10 8 7 7 7 8 9 9 9 9 9 9 8 9 9 9 10 11 11 12 13 13 14 14 15 15 15 15 15 16 16 16 17 17 17 17 17 18 18 18 18 19 20 21 21 22 23 24
22 17 18 17 16 17 18 17 15 14 14 13 11 11 11 9 8 6 6 6 6 7 8 8 8 9 9 9 9 9 9 9 9 10 10 11 12 12 13 13 13 14 14 14 15 15 15 15 16 16 16 15 15 14 15 15 16 16 17 17 17 18 20
24 14 15 19 18 18 18 17 15 14 14 13 12 11 10 9 8 7 7 7 8 8 8 8 8 8 9 9 9 9 9 9 9 10 10 11 11 12 12 12 12 13 13 14 14 15 15 15 15 15 15 14 13 13 12 12 12 13 13 14 14 15 16
25 15 14 18 17 16 18 18 17 15 14 14 13 12 11 10 9 9 9 9 9 10 10 10 10 10 10 9 9 9 9 10 10 10 11 11 12 12 12 12 12 12 13 13 13 14 14 14 14 14 14 14 13 13 12 12 12 12 12 12 12 12 13
20 13 13 15 13 14 17 19 19 17 16 15 15 14 13 12 12 11 11 11 11 11 12 12 12 12 12 11 11 10 10 10 10 11 11 12 12 13 13 14 14 14 14 14 14 14 14 14 14 14 14 15 14 14 13 13 13 13 13 12 12 12 12
16 14 13 12 11 12 16 18 20 19 18 16 16 16 15 14 13 12 12 12 12 12 12 11 11 11 11 11 11 11 11 11 11 11 12 12 13 14 14 15 16 16 16 16 16 15 15 15 15 15 15 15 15 15 15 14 14 14 14 14 14 14 14
14 13 13 14 13 13 15 17 19 19 18 17 16 17 17 16 14 13 12 12 12 12 11 10 9 9 9 10 10 11 11 12 12 12 12 12 13 14 15 16 16 17 17 17 17 16 16 15 15 15 15 15 15 15 15 15 15 15 15 15 15 16 16
15 15 15 17 17 16 17 17 18 18 19 19 18 19 18 17 15 14 13 13 12 12 12 11 11 11 10 10 11 12 12 12 13 13 13 14 15 15 16 17 18 18 19 18 17 16 15 14 13 13 13 13 13 13 14 14 15 15 15 15 16 17 18
18 18 18 18 19 18 18 18 19 20 22 22 22 22 21 19 17 15 14 14 13 14 14 14 15 15 14 14 15 14 14 13 14 15 15 16 17 18 19 20 20 20 21 21 19 18 17 16 15 14 14 13 13 13 13 14 15 15 16 16 16 17 18
24 23 21 18 18 18 18 19 20 21 22 24 25 25 23 22 20 18 17 16 16 16 16 17 18 18 18 18 18 17 17 16 16 17 18 19 20 21 21 22 23 23 23 23 23 22 21 20 19 19 18 17 16 16 15 15 15 16 17 18 18 18 18
24 26 23 19 18 18 19 20 20 21 22 25 27 27 26 25 24 22 20 19 19 19 20 20 20 20 21 21 20 19 19 19 19 20 22 25 26 26 25 24 24 25 25 26 26 25 25 25 24 23 22 21 20 19 19 18 18 18 19 20 20 20 20
21 24 25 23 19 19 19 19 21 23 25 27 29 30 29 28 27 25 23 23 23 23 23 23 23 24 24 24 23 23 22 22 22 23 24 25 26 26 27 26 24 24 25 26 27 27 28 28 28 27 26 24 24 24 23 22 21 21 21 21 21 22 22
24 24 25 24 22 22 22 22 23 24 26 29 31 31 32 31 28 26 26 26 26 27 28 28 27 26 26 26 26 26 26 26 26 27 27 26 25 24 24 24 24 25 26 26 26 27 28 29 29 29 28 28 27 27 27 26 25 24 23 23 22 22 22
23 22 21 22 23 24 24 23 22 23 26 29 30 30 31 29 25 25 26 27 29 31 31 30 29 28 27 26 26 27 29 29 30 30 30 29 29 28 26 26 26 27 27 27 27 27 28 29 30 30 30 30 30 30 31 30 30 29 27 26 25 25 25
22 22 22 22 22 24 26 25 24 24 25 27 30 30 30 25 23 25 26 26 28 29 28 28 28 28 27 27 27 30 32 33 34 34 34 34 33 32 31 31 31 30 30 30 30 30 30 31 32 33 34 34 34 35 35 35 35 35 33 32 31 31 31
25 25 27 27 26 28 29 28 25 23 22 24 28 30 28 26 27 26 26 27 30 32 33 33 34 34 32 31 32 34 35 36 36 36 36 36 36 36 36 35 35 35 35 35 35 35 34 35 36 37 38 39 39 40 40 40 40 39 39 38 38 38 37
29 30 32 34 33 32 32 31 29 30 30 31 32 32 33 35 35 33 34 35 37 38 38 37 38 38 37 37 37 38 38 38 38 38 39 39 40 41 41 41 40 39 38 38 38 39 39 40 41 41 42 41 42 43 44 44 44 44 43 43 43 43 43
33 34 35 36 36 34 34 34 35 36 37 36 37 38 40 41 39 37 37 37 37 37 36 36 37 39 40 40 40 41 42 42 43 43 44 44 45 45 45 45 44 43 42 42 41 41 42 43 44 44 44 43 43 44 46 46 46 46 46 46 45 46 46
34 35 36 36 36 36 36 37 37 38 38 38 39 39 39 39 38 36 35 35 36 36 36 37 38 39 40 41 42 43 44 44 45 46 47 48 49 49 48 47 47 46 46 46 44 43 44 44 45 45 45 45 45 46 48 48 47 46 46 46 47 47 48
37 36 36 35 35 34 35 37 38 39 38 38 38 37 37 37 37 37 36 36 37 39 40 42 42 43 43 43 43 44 44 45 46 47 48 50 50 51 50 49 49 49 49 49 48 47 48 48 48 48 48 48 48 48 49 49 49 49 50 50 51 50 49
41 38 36 35 35 35 36 37 38 39 39 39 38 37 37 38 39 40 41 41 41 42 43 44 45 46 46 45 45 45 45 46 46 47 48 49 50 50 50 50 50 50 50 51 50 50 50 51 51 52 51 50 50 51 51 51 51 52 53 53 53 52 51
44 42 40 40 41 41 40 41 41 42 42 42 41 40 39 40 42 43 44 44 44 44 45 46 46 47 46 46 45 46 46 47 47 48 48 48 49 50 50 50 50 50 50 50 50 50 50 51 52 52 52 52 52 53 53 54 54 54 54 53 53 53 53
44 43 44 46 47 47 46 46 46 46 46 45 44 43 43 44 45 46 47 47 46 46 47 47 48 48 47 46 46 46 47 47 48 48 49 49 49 50 50 50 51 50 50 50 50 51 51 51 52 52 53 53 54 54 55 55 56 56 55 54 54 55 56
46 48 50 51 51 51 51 51 50 49 48 47 46 46 46 47 47 47 48 47 45 46 47 48 48 48 49 49 48 47 47 47 48 48 49 49 49 50 50 51 51 51 52 52 53 53 53 54 55 55 55 55 55 56 56 56 56 56 55 55 56 57 58
49 51 52 52 50 49 49 50 50 50 50 49 49 49 49 48 47 47 47 46 46 48 48 48 48 48 49 50 50 50 49 48 48 48 48 48 49 49 50 50 51 52 52 53 53 54 54 54 55 55 56 56 56 56 56 56 56 56 56 56 57 57 58
50 49 49 48 47 47 47 47 49 50 51 51 51 51 50 48 48 47 47 48 50 51 51 50 50 50 50 50 50 50 49 49 48 48 48 48 48 49 49 49 49 50 50 50 50 50 51 51 52 52 53 54 54 55 55 56 56 56 56 57 57 57 57
50 49 49 48 48 48 48 48 49 50 50 51 51 51 50 50 50 49 50 51 53 53 53 52 51 51 51 50 50 49 49 48 47 47 47 47 47 47 47 47 47 48 48 48 48 48 48 48 48 49 50 51 52 53 54 55 55 55 56 56 56 56 57
52 52 52 52 52 51 50 50 52 52 52 52 52 53 53 53 52 52 53 54 54 54 53 52 51 51 51 51 50 50 49 48 47 46 46 46 46 46 46 47 47 47 47 47 47 47 47 46 47 47 49 50 51 52 53 53 54 54 55 55 55 56 56
57 56 56 56 54 52 52 52 52 53 52 52 53 53 54 54 54 54 55 56 57 57 56 54 52 52 52 51 51 50 49 48 47 47 46 46 46 46 46 47 47 47 47 47 47 47 47 47 47 47 48 49 49 50 51 51 52 53 54 54 55 55 56
60 57 56 55 53 51 51 50 50 50 49 50 51 52 53 54 55 55 57 58 59 58 57 54 53 53 53 53 52 51 50 49 48 47 47 46 45 45 46 46 46 46 46 46 46 47 47 47 46 46 46 46 47 48 49 50 51 51 52 53 53 54 54

ECMWFFLT1_500_spd_015.txt.gz
Wind_Speed
13 14 13 14 16 15 15 16 17 17 16 15 14 12 12 13 14 15 16 17 18 19 19 20 20 21 22 22 22 23 23 23 23 23 22 23 23 22 22 22 21 21 22 22 22 21 21 21 22 22 22 22 23 23 23 23 23 23 23 24 25 26 27
14 15 16 17 19 19 17 16 16 16 16 15 14 13 12 13 13 14 16 17 19 20 20 21 21 21 21 21 22 22 22 22 22 22 22 22 22 22 22 22 21 21 21 22 22 23 22 22 23 23 23 23 24 24 24 24 24 24 24 24 25 26 27
16 16 17 18 21 22 20 17 15 15 15 14 14 14 13 13 14 14 15 17 18 20 21 21 21 22 22 22 22 22 22 22 22 22 22 22 22 21 21 21 20 19 19 20 21 22 22 21 21 22 23 23 24 24 24 24 25 25 25 24 25 25 26
18 18 18 19 21 23 21 18 15 14 14 14 14 15 14 14 14 14 15 16 18 20 21 22 23 23 23 23 22 22 22 22 22 21 21 21 21 20 19 18 18 17 17 17 18 19 19 19 19 20 20 22 23 23 23 23 24 24 25 25 24 25 26
20 20 20 19 19 22 22 19 15 13 14 14 15 15 15 14 14 14 14 15 17 19 21 22 23 23 24 24 23 23 23 22 21 21 20 19 19 18 17 16 15 14 14 14 14 15 16 16 16 17 18 19 21 22 22 22 23 23 24 24 24 24 25
23 22 22 21 19 21 23 20 16 14 15 16 17 16 15 14 14 14 14 15 16 18 20 21 22 23 23 24 24 23 23 22 21 20 19 17 16 16 15 14 13 12 12 11 11 12 12 12 13 14 15 16 17 18 19 19 20 20 21 22 23 23 24
24 23 23 22 21 21 23 21 18 17 17 18 18 17 16 15 14 14 14 14 16 18 19 20 21 22 22 23 22 22 22 21 20 19 18 17 16 15 14 13 13 12 10 9 9 9 9 9 9 9 10 11 12 13 14 15 15 16 17 18 19 20 21
22 22 23 23 22 21 22 22 22 20 20 20 20 19 17 16 15 14 14 14 15 17 19 20 21 21 21 21 21 21 20 20 19 18 17 16 15 14 13 13 12 12 11 9 9 8 8 8 8 8 8 9 9 10 11 11 11 12 13 14 15 15 16
22 23 23 23 23 22 23 26 26 23 22 23 22 21 19 17 16 14 14 14 14 15 17 19 21 21 21 21 20 20 19 18 18 17 16 16 15 14 14 13 13 12 12 11 10 9 8 8 8 7 8 8 9 9 10 11 11 11 11 11 12 12 12
26 26 27 26 27 25 23 27 29 26 23 23 23 21 20 18 16 15 14 13 13 14 15 17 18 19 19 19 18 18 18 17 17 17 16 16 15 15 14 14 14 14 13 13 12 10 9 8 7 7 7 8 8 9 10 11 11 11 11 12 12 11 11
28 28 29 30 31 30 28 29 32 29 25 23 22 22 20 18 17 15 14 13 13 13 14 15 16 16 16 17 17 16 16 16 16 16 16 16 15 15 14 14 14 13 13 13 13 12 11 10 9 8 8 8 9 9 10 11 11 12 12 12 12 12 12
23 24 23 22 21 25 27 29 33 30 24 22 22 22 21 18 17 15 15 14 14 14 14 15 15 16 16 17 17 17 16 16 16 16 16 16 16 15 15 14 13 13 12 12 12 12 12 12 11 10 10 9 9 9 10 11 11 12 13 13 13 13 13
21 22 21 17 14 14 16 19 24 24 20 19 20 22 21 19 17 16 16 15 15 15 15 15 16 16 17 18 18 18 18 18 18 18 18 18 18 17 16 16 15 14 13 13 12 12 13 13 13 13 12 11 11 10 11 11 11 12 13 13 14 14 14
22 22 22 18 14 13 12 13 14 16 16 16 17 20 21 20 19 18 18 17 16 16 15 15 15 16 17 18 19 19 19 19 19 19 18 18 17 17 16 16 15 14 13 12 12 12 12 13 14 14 14 14 13 13 13 12 12 12 12 13 14 14 15
21 22 22 20 16 14 13 13 13 14 15 15 15 17 19 19 18 18 18 17 17 17 16 15 15 15 15 16 17 17 18 18 17 17 17 16 16 15 15 14 13 12 11 11 11 11 12 13 14 14 15 15 15 15 15 15 14 14 13 13 14 15 16
21 20 20 19 17 15 14 15 15 14 15 15 15 17 18 19 18 17 17 17 18 17 16 16 15 14 14 15 15 15 16 16 16 15 15 14 14 14 14 14 13 12 12 12 12 13 13 14 14 14 14 15 15 16 17 17 17 17 17 16 16 17 17
19 18 17 16 15 14 15 16 16 16 17 17 18 19 20 20 20 19 18 18 18 18 17 17 16 15 15 16 16 15 15 16 16 16 16 15 14 14 15 15 15 15 14 13 13 14 14 15 15 16 15 15 16 16 17 18 19 20 21 21 21 21 20
18 18 17 16 16 14 14 16 18 19 20 21 22 21 21 21 22 22 21 20 18 18 18 18 18 18 18 18 19 18 17 18 19 19 19 18 17 16 16 17 18 19 19 17 16 15 14 14 15 16 16 17 17 18 18 19 20 21 23 23 24 24 25
19 19 19 18 18 17 16 16 18 19 22 24 25 24 23 22 22 22 22 22 21 20 19 19 20 21 21 21 22 22 21 21 21 21 21 21 20 19 19 19 20 21 21 21 20 19 17 16 16 16 18 19 20 20 21 22 23 24 25 25 25 26 27
21 21 20 19 19 18 17 17 19 21 22 23 24 25 25 26 24 22 22 22 23 23 22 22 22 23 24 25 26 25 24 24 24 24 24 24 24 24 23 23 23 23 24 24 24 23 22 21 21 21 22 23 24 24 25 25 26 27 27 28 28 28 28
25 24 22 21 21 21 20 20 21 23 23 23 23 25 26 27 26 23 22 23 24 24 24 24 25 25 26 26 26 26 26 26 26 26 27 27 27 27 26 26 27 27 27 27 27 26 26 26 26 26 26 27 27 28 28 29 30 31 31 31 32 32 31
30 29 27 26 25 25 24 22 21 22 22 23 23 24 25 26 28 27 25 25 25 24 25 27 26 26 25 25 26 28 28 29 29 29 29 28 26 25 25 26 27 28 29 29 29 29 29 29 30 30 31 32 32 33 33 33 34 35 35 36 36 36 36
34 34 34 32 30 29 27 25 24 24 24 25 26 25 25 27 29 30 28 26 26 26 27 28 27 26 26 27 30 29 25 27 29 28 27 26 25 25 26 27 28 29 30 31 32 32 32 33 34 35 36 37 37 38 39 39 39 39 40 40 40 40 40
37 37 37 37 35 33 31 29 29 28 29 31 31 29 28 29 30 30 29 28 27 27 28 29 29 30 29 29 32 30 25 24 26 26 27 27 28 29 30 31 32 33 34 35 36 36 36 37 38 38 40 40 41 42 43 43 43 42 43 44 44 45 45
40 39 39 40 39 38 36 35 34 32 31 32 32 31 30 31 32 31 31 32 33 33 32 32 33 35 35 33 33 34 34 33 32 30 30 30 30 31 31 32 33 33 34 35 35 36 36 37 38 39 40 41 41 42 43 44 43 44 44 45 46 46 47
43 43 42 42 42 41 41 40 39 37 34 33 33 33 33 33 35 36 36 36 37 38 37 36 35 37 38 36 34 35 37 40 38 33 29 28 28 29 31 31 31 31 31 31 32 32 33 34 35 37 38 39 40 40 41 42 43 44 44 45 45 46 47
46 45 45 44 44 44 44 43 43 42 39 37 37 39 38 37 38 39 39 39 39 38 39 39 37 36 36 35 33 33 34 37 37 34 30 28 29 30 31 32 32 31 30 29 29 30 31 32 34 35 37 37 38 40 41 42 42 43 44 44 45 46 47
45 45 45 45 45 45 45 45 44 43 42 41 41 42 41 40 40 40 39 40 41 41 41 41 38 34 33 32 32 31 31 32 33 33 32 32 32 32 32 32 33 33 32 31 31 31 32 33 35 36 37 38 39 40 41 42 43 43 44 44 45 46 47
45 45 45 45 46 46 46 45 43 41 40 40 42 43 43 43 43 42 41 41 43 43 42 41 38 35 34 34 34 34 33 33 33 33 34 35 35 34 33 33 33 34 35 35 36 36 36 36 37 38 39 40 41 42 43 43 44 44 45 46 46 47 47
46 47 48 48 47 46 46 46 46 45 44 43 44 45 45 45 44 43 42 42 44 44 43 41 39 38 37 37 37 38 38 37 37 37 37 37 37 36 35 35 34 35 36 37 38 38 39 39 40 40 40 41 42 43 44 44 45 46 46 47 47 47 48
51 51 52 51 49 48 46 45 45 47 47 47 45 44 43 42 43 42 43 46 47 46 44 43 42 41 41 41 42 43 42 41 40 40 40 40 40 39 38 37 37 38 38 38 39 40 40 41 42 42 42 43 43 44 44 45 46 46 47 47 47 47 47
56 54 53 52 51 49 47 45 44 44 45 47 47 46 46 46 45 43 43 45 47 47 47 47 46 45 45 45 46 46 45 44 43 42 42 42 41 41 40 40 40 40 40 40 40 41 42 42 43 43 43 44 44 44 45 46 46 47 47 47 47 47 47
56 54 53 52 52 51 48 46 45 44 43 44 45 46 46 44 44 44 43 44 46 47 47 47 47 47 48 48 47 46 44 43 42 41 41 41 41 41 42 42 43 42 42 42 43 43 43 43 44 43 44 44 44 45 45 46 47 47 47 47 47 47 46
56 54 52 51 52 53 52 49 46 43 39 39 41 42 43 42 42 43 43 44 46 46 46 46 46 47 47 47 46 44 43 42 42 42 42 42 43 43 43 44 44 43 43 45 46 46 45 44 44 43 44 44 45 45 46 47 47 47 47 46 46 46 46
55 53 52 51 51 52 54 54 51 47 42 40 40 41 42 44 44 44 43 45 46 46 46 46 46 46 47 46 45 44 43 43 43 44 45 45 45 45 44 44 43 43 46 47 47 46 45 44 43 43 43 44 44 45 46 47 47 47 46 46 45 45 46
55 53 52 51 50 51 52 54 55 54 51 49 47 45 44 43 43 42 42 43 44 45 45 46 46 46 46 46 46 46 45 45 46 46 46 46 46 45 44 44 44 46 49 49 47 46 45 44 44 43 44 44 45 45 46 47 46 46 46 45 45 45 45
58 56 54 52 51 51 51 52 54 55 55 55 54 53 51 49 47 45 43 42 43 45 47 48 48 48 48 48 49 49 49 49 49 47 45 44 43 43 44 45 47 49 51 49 47 46 45 45 44 44 44 45 46 46 47 47 46 46 45 45 44 44 45

ECMWFFLT1_500_spd_021.txt.gz
Wind_Speed
15 15 14 14 15 16 16 16 15 13 12 11 11 11 12 12 13 13 13 12 12 13 14 15 16 17 17 18 19 19 19 19 19 20 20 20 20 19 20 21 21 20 20 20 20 18 17 19 19 19 19 19 20 21 21 20 19 18 18 18 18 18 19
14 13 13 14 15 16 16 17 16 15 14 12 11 11 11 11 12 13 13 13 13 13 14 15 16 18 18 19 19 19 19 18 19 19 19 20 20 20 20 21 21 21 21 20 18 18 21 22 21 20 20 21 22 22 22 22 21 20 20 20 20 20 20
13 13 14 15 16 17 17 17 17 17 16 15 14 14 13 12 12 12 13 13 13 13 14 15 16 18 19 19 19 19 19 18 18 18 19 19 19 19 19 20 21 22 21 20 20 21 23 23 22 22 22 23 23 23 23 23 22 22 21 20 21 21 21
13 13 13 14 15 17 18 18 18 18 18 17 16 16 15 14 13 13 13 13 13 14 15 15 16 18 19 20 20 20 19 18 18 18 18 18 18 18 19 20 21 21 21 21 22 24 24 23 23 23 23 23 23 23 23 23 22 22 22 21 21 21 21
13 13 13 13 14 16 18 19 19 18 18 17 17 17 17 16 15 16 16 16 16 16 16 16 16 18 19 20 20 20 19 18 17 17 17 17 17 17 18 19 20 20 21 21 22 22 22 22 22 22 22 22 22 22 22 22 22 21 22 21 20 19 19
13 12 12 12 13 16 18 19 20 19 19 18 18 18 17 17 16 16 17 17 17 17 17 16 17 17 19 20 20 19 18 17 17 16 16 16 16 16 17 17 18 19 19 20 20 20 20 20 20 20 20 20 20 21 21 20 20 20 19 19 19 18 16
14 13 13 13 13 15 17 18 19 19 19 18 17 17 16 16 16 15 14 15 16 16 17 17 17 17 18 19 19 19 18 17 16 15 15 15 16 16 16 16 16 16 16 16 17 17 17 17 17 17 17 18 18 19 19 19 18 17 17 17 17 16 15
16 14 13 13 14 15 16 17 18 19 19 18 18 18 17 16 16 15 14 14 14 16 17 18 17 17 18 18 19 18 17 16 15 15 14 15 15 15 15 15 14 14 14 14 14 14 14 14 14 15 15 15 16 16 17 17 17 16 16 16 16 15 15
16 14 14 15 16 16 16 16 17 17 18 18 19 20 19 18 18 18 17 16 16 17 18 18 17 17 17 18 18 17 16 15 15 14 14 14 14 15 15 14 14 13 13 13 13 12 12 12 13 13 14 14 14 15 15 15 16 16 15 15 14 14 14
15 14 16 16 16 16 15 15 16 16 18 18 18 19 19 18 18 19 19 17 17 18 19 18 17 17 18 18 18 17 16 15 14 13 12 12 13 13 14 14 13 13 13 13 12 12 12 12 12 13 13 13 13 13 14 14 14 14 14 14 13 13 13
15 15 17 17 16 16 15 16 17 18 19 20 19 19 17 14 15 17 19 19 18 18 19 19 18 17 18 18 17 16 15 14 13 12 11 11 12 12 13 13 13 13 13 12 12 12 12 13 13 13 13 13 13 13 13 13 13 14 14 14 13 13 13
17 17 18 18 16 16 15 15 16 18 19 18 19 19 17 14 12 15 18 20 20 19 19 18 17 17 18 17 17 16 15 14 13 12 12 12 12 13 13 13 13 13 13 13 13 13 13 13 13 13 13 14 14 14 14 14 14 14 14 14 14 14 14
20 19 18 18 17 16 15 15 15 17 17 16 17 18 17 14 11 12 15 17 18 19 18 17 16 16 17 17 17 16 15 15 14 14 14 14 14 14 14 15 14 14 14 14 13 13 13 14 14 14 14 15 15 15 15 15 15 15 14 15 15 15 14
23 21 19 18 17 17 16 14 15 15 15 14 15 15 15 14 12 10 11 12 14 16 16 15 15 16 17 17 17 17 16 16 16 16 16 16 16 16 16 16 15 15 15 14 14 13 13 13 13 14 14 15 15 15 16 16 16 15 15 15 15 15 15
24 22 20 19 18 18 16 15 15 15 14 14 14 13 13 13 12 10 10 11 12 14 14 14 15 16 17 18 18 18 18 18 18 18 17 17 17 16 16 16 16 16 15 15 14 14 14 13 13 14 14 14 15 15 15 15 15 14 14 14 14 15 15
23 21 20 19 18 17 17 16 16 15 14 14 13 13 12 12 11 11 10 11 12 13 14 14 15 16 18 19 20 21 21 20 20 20 19 18 18 17 17 16 16 16 16 16 15 15 15 15 15 15 14 14 15 16 16 16 15 14 14 14 14 14 14
20 20 19 19 18 18 18 17 16 16 16 15 13 12 12 12 12 12 12 12 13 14 14 15 16 17 18 19 20 21 22 22 21 21 20 20 19 19 19 18 17 17 17 17 17 17 17 17 17 17 16 16 16 16 16 17 17 17 17 17 16 16 16
19 18 18 18 18 18 18 17 17 17 17 16 14 13 12 12 13 13 13 13 14 15 16 17 17 18 19 19 20 21 22 23 23 22 21 21 21 21 21 20 19 19 19 20 20 20 20 20 20 20 20 20 19 18 18 18 18 19 20 20 19 19 19
18 18 17 17 17 17 17 18 18 18 17 16 14 13 13 13 14 15 15 15 16 17 17 18 19 19 20 21 21 22 23 24 24 23 23 23 23 23 23 22 22 22 23 23 23 23 23 23 24 24 24 24 24 23 22 22 21 22 23 23 23 23 22
20 20 19 18 17 17 18 19 19 19 17 16 14 13 13 14 15 16 17 17 18 18 19 20 21 21 21 23 24 24 25 27 26 25 24 24 25 25 26 26 25 25 26 26 26 27 27 26 27 27 27 28 28 27 26 26 26 26 26 27 29 29 28
22 22 21 20 19 19 19 20 21 20 19 18 17 17 16 16 17 18 19 19 20 20 20 21 21 21 22 23 25 26 28 29 28 27 25 25 25 26 28 29 30 30 29 29 29 29 29 29 29 29 29 30 30 30 30 30 30 30 30 31 33 34 34
23 23 23 23 23 22 22 22 23 22 22 22 21 21 21 21 21 22 22 22 22 22 22 22 21 21 22 23 24 26 28 30 31 30 28 27 27 27 28 31 32 33 32 31 31 31 31 31 32 32 33 32 32 32 33 32 32 33 33 34 35 37 37
26 26 26 26 26 26 26 26 26 26 26 26 26 26 26 25 25 25 25 25 25 25 26 26 26 26 27 27 26 27 28 31 33 32 31 31 30 29 30 30 31 32 33 33 33 33 33 32 33 33 34 33 33 32 33 33 33 34 35 36 38 39 40
29 29 29 29 29 29 29 30 30 30 30 30 30 30 30 29 28 28 28 28 29 29 29 30 30 31 32 32 32 32 31 31 34 35 33 33 33 32 30 30 30 31 32 32 32 31 31 32 33 33 34 33 33 33 34 35 35 37 37 38 39 41 42
31 31 31 31 31 32 32 33 34 34 34 34 34 34 33 32 32 32 32 32 32 32 32 33 33 33 33 34 35 36 35 34 36 36 36 35 36 34 31 31 31 31 31 31 31 30 31 32 32 32 33 34 35 36 37 39 40 41 41 42 42 43 44
34 34 34 34 35 36 36 36 37 37 38 38 37 36 36 36 36 36 35 36 36 35 35 36 36 35 35 36 37 38 39 39 38 36 36 37 38 36 34 33 33 33 34 34 35 35 35 35 35 35 36 37 38 40 41 42 43 44 44 43 43 43 43
38 38 38 38 39 39 39 39 39 40 40 40 40 39 39 39 39 37 36 35 36 37 38 37 37 37 37 38 39 40 42 43 41 38 37 38 39 39 38 37 36 36 37 38 38 37 37 37 38 38 38 38 39 39 40 41 41 41 41 41 41 42 42
43 43 43 43 43 43 43 42 40 39 38 38 39 40 40 39 37 35 34 34 36 38 37 36 36 38 38 40 42 43 43 45 44 43 41 40 40 40 40 41 40 39 39 39 38 37 37 38 38 38 38 38 38 38 39 39 40 40 40 41 42 42 43
48 47 47 46 45 43 41 39 37 35 35 36 37 38 38 37 36 35 36 37 38 39 39 38 38 38 39 41 44 45 45 45 45 46 46 43 43 44 44 44 43 42 41 40 39 38 38 38 38 38 38 38 38 39 40 40 41 42 42 42 43 44 45
48 47 45 43 41 38 37 36 36 36 36 36 36 36 36 36 38 40 41 42 42 42 41 41 40 40 41 42 44 46 47 47 47 48 48 47 47 47 46 45 45 43 41 39 38 38 39 38 38 38 37 38 39 40 41 43 43 44 44 44 45 46 47
46 45 45 44 43 42 42 42 42 43 43 43 43 43 43 43 45 47 48 49 50 49 48 46 45 45 44 44 45 47 49 50 50 49 49 49 49 47 46 45 45 43 41 39 38 38 39 39 38 38 39 40 41 41 42 44 44 44 44 44 45 46 47
49 49 51 51 51 52 52 52 51 51 51 51 51 51 52 52 53 54 54 55 55 54 54 53 51 50 49 47 48 49 50 51 50 48 48 50 50 49 48 47 45 44 42 40 39 39 41 41 40 40 41 41 41 41 41 42 43 43 44 44 45 46 48
56 58 58 59 59 59 59 59 58 58 57 57 56 57 57 57 58 58 58 58 57 57 57 56 55 54 53 51 49 50 51 52 51 49 48 47 45 44 46 47 45 42 40 38 39 42 43 43 43 42 42 42 42 42 41 42 43 45 45 46 47 49 51
63 64 64 64 64 64 64 64 63 62 62 61 61 61 61 61 61 61 61 61 61 60 60 59 57 55 54 52 50 50 51 51 50 50 47 43 42 43 45 44 41 39 38 41 43 45 45 44 43 42 42 41 42 42 43 44 45 47 49 50 51 52 53
67 67 67 67 67 67 66 66 66 66 66 65 64 64 64 64 64 63 63 63 62 61 60 59 57 55 53 52 50 49 48 49 50 50 45 43 47 49 47 44 41 41 44 46 47 46 44 43 42 41 41 41 42 44 46 47 48 49 50 51 51 52 52
69 70 69 69 69 69 69 69 68 68 68 68 68 67 66 65 64 63 63 62 61 60 59 56 54 53 51 50 48 45 45 47 47 46 43 43 46 48 47 46 46 48 50 49 48 46 44 42 42 42 42 43 45 46 48 49 49 49 49 49 50 50 50
70 71 71 71 71 71 71 71 70 70 70 70 69 67 65 65 64 62 61 60 59 58 57 54 53 51 49 48 46 44 45 48 47 45 45 47 47 48 49 51 51 52 51 50 49 47 45 44 44 45 45 46 47 48 49 48 48 47 47 48 49 50 52

ECMWFFLT1_500_spd_024.txt.gz
Wind_Speed
21 19 18 17 17 17 16 15 14 14 13 12 11 11 11 11 11 12 12 11 11 12 11 11 11 11 11 11 11 11 12 13 13 13 13 12 12 13 12 11 12 12 12 13 13 14 14 13 12 13 15 16 16 16 18 18 19 19 18 17 16 16 16
22 19 18 17 17 18 16 15 14 14 14 13 13 12 12 12 12 11 11 11 11 11 11 11 11 12 12 12 12 12 12 13 13 13 13 12 12 13 13 13 13 12 13 13 14 14 13 12 12 14 15 16 16 17 18 19 18 18 18 17 17 16 16
22 19 18 18 18 18 16 15 14 13 13 13 14 14 15 15 15 15 14 13 12 12 12 12 12 12 12 12 13 13 13 13 12 12 13 11 11 13 13 13 13 12 13 14 14 13 12 12 14 15 15 15 16 17 17 18 18 18 18 17 16 16 16
20 18 18 18 18 17 16 15 15 13 12 12 14 15 17 18 18 19 18 17 16 15 14 14 14 13 12 12 13 13 14 13 13 13 13 12 11 12 12 13 13 12 13 13 12 12 12 13 13 13 14 15 16 16 17 17 17 17 17 16 16 16 15
18 17 18 18 17 17 16 15 14 13 12 11 12 14 16 18 20 21 22 22 20 19 18 17 17 16 15 13 13 13 14 14 13 13 13 12 11 11 11 12 12 12 12 12 11 11 12 12 12 12 13 14 14 15 16 16 17 17 16 16 15 15 14
16 16 17 17 16 16 15 14 14 12 12 11 12 13 15 17 19 20 21 22 22 21 20 19 18 18 17 15 13 13 13 13 13 13 12 11 11 12 11 11 11 11 11 11 11 11 11 11 11 11 12 13 14 14 14 15 15 16 15 15 14 14 14
16 16 16 16 16 16 16 14 13 12 11 12 12 12 13 14 16 18 20 20 20 19 18 17 16 16 16 16 15 14 13 13 13 13 12 11 11 11 11 11 11 10 10 10 11 11 11 11 11 11 12 12 13 13 13 14 14 15 15 14 14 13 13
16 16 16 17 18 17 16 15 12 11 11 11 11 11 11 13 15 17 19 20 19 17 16 15 14 15 16 16 16 14 13 13 13 12 12 12 11 11 11 10 10 10 9 9 10 10 10 10 10 10 11 11 12 12 12 13 13 14 14 14 13 13 13
17 17 17 19 19 18 17 14 12 11 10 10 10 10 12 14 16 17 19 21 21 19 17 16 16 16 16 16 16 15 14 14 13 12 12 12 11 11 10 10 9 9 8 8 8 9 9 9 10 10 10 10 11 11 12 12 12 13 13 13 13 13 12
19 19 20 21 21 19 17 14 11 10 10 9 10 11 12 14 16 17 18 19 20 22 20 19 18 17 17 16 15 15 15 15 14 13 13 12 12 11 10 10 9 9 8 8 8 8 9 9 9 10 10 10 10 11 11 12 12 13 13 13 13 13 13
19 21 22 23 22 20 17 14 11 10 10 10 11 11 12 12 14 16 17 17 17 20 21 20 19 18 17 17 16 15 15 15 15 15 14 13 12 12 11 10 10 9 9 10 10 10 10 10 11 11 11 10 11 11 12 12 13 13 14 14 14 13 13
18 21 23 24 22 19 17 13 11 11 10 11 12 11 11 12 14 14 15 15 14 16 19 20 20 20 19 18 17 16 16 15 15 15 14 14 13 12 12 12 12 12 12 12 11 12 12 12 12 12 12 12 12 12 13 14 14 14 15 15 15 15 15
17 20 23 23 20 18 16 14 13 12 12 12 12 11 11 12 14 15 16 15 14 14 16 19 20 20 20 19 17 16 16 16 15 15 15 14 14 14 14 14 14 14 14 13 13 13 12 12 12 13 13 13 13 14 14 14 14 15 15 15 16 16 17
14 16 20 21 20 19 17 16 15 15 14 13 12 12 12 12 13 15 16 16 14 13 13 15 17 18 18 18 17 16 15 15 15 15 16 16 16 16 16 16 16 16 15 14 14 13 13 13 13 13 14 14 14 14 14 14 14 14 15 15 16 17 17
13 13 17 19 21 22 20 19 18 17 16 15 14 13 13 12 13 14 15 15 14 12 12 12 14 15 16 17 16 16 16 15 15 16 16 17 17 18 18 18 18 17 16 15 15 15 15 14 14 14 15 15 15 15 14 14 13 14 15 15 16 16 16
16 16 17 18 20 21 21 21 20 18 18 17 16 15 14 13 13 13 14 15 15 13 12 11 12 14 15 16 16 16 16 17 17 17 18 18 19 19 19 19 18 18 17 17 16 16 16 15 14 15 16 16 16 15 15 14 13 14 15 16 16 16 17
19 18 18 18 19 20 21 21 20 19 19 18 17 16 15 14 15 15 15 16 15 14 13 12 12 13 14 15 15 16 17 17 18 19 19 19 19 19 19 19 19 19 18 18 18 18 18 16 15 16 17 17 17 17 17 17 16 16 16 17 17 17 17
20 20 19 19 20 21 21 21 20 19 18 18 17 16 15 16 16 17 17 17 16 14 13 12 12 13 14 15 16 17 18 19 20 20 20 20 20 20 21 21 21 21 21 20 20 19 19 19 18 18 19 19 19 19 20 20 20 20 20 20 19 19 19
19 20 20 19 20 20 20 20 19 18 17 18 18 17 17 17 18 18 18 17 16 14 13 12 12 12 14 15 17 18 19 20 21 22 22 22 22 23 23 23 23 24 23 23 23 22 22 22 22 21 22 23 21 20 23 24 23 24 24 24 24 23 23
16 17 18 18 18 18 18 18 18 18 18 19 19 18 18 18 19 19 18 18 17 16 15 14 13 13 14 15 17 18 20 21 22 23 25 25 25 25 25 25 25 25 25 26 26 25 25 25 26 25 25 26 25 24 25 26 26 26 27 27 28 28 28
15 16 17 18 18 18 18 18 19 19 19 19 19 19 19 19 19 19 20 20 19 19 19 18 17 15 15 15 16 18 20 21 21 24 26 27 27 27 27 27 28 28 27 28 28 29 29 29 29 29 29 29 29 27 27 28 29 29 30 30 30 30 31
16 17 18 19 19 19 19 19 19 19 19 19 20 20 20 20 21 21 21 22 22 22 23 23 22 20 19 18 18 19 20 20 20 23 26 27 28 29 30 31 31 32 31 30 30 31 31 32 32 32 31 31 31 30 30 29 30 31 32 32 32 33 32
18 18 19 20 20 20 21 21 21 21 21 22 22 22 23 23 24 24 24 25 25 26 26 27 26 25 25 24 22 22 23 22 22 23 25 27 28 30 31 33 35 36 35 33 33 33 33 33 33 33 32 32 31 31 31 31 31 31 32 32 33 34 34
20 21 21 22 23 23 23 23 23 23 24 24 24 24 25 25 26 27 27 28 28 29 30 31 30 30 30 29 27 26 26 26 26 26 27 28 29 30 32 34 37 39 39 37 35 35 35 33 32 32 32 32 31 30 30 30 31 32 32 33 34 35 37
23 23 24 25 26 25 25 25 25 26 27 27 26 26 26 27 28 28 29 30 32 33 34 35 34 34 34 33 32 30 30 30 29 29 29 29 30 31 33 35 36 38 41 41 39 38 37 35 33 32 31 29 29 29 30 32 33 33 34 35 37 39 40
26 27 27 28 29 28 27 28 27 28 29 29 28 28 28 29 30 30 31 32 34 35 37 38 36 35 35 35 35 34 33 33 34 34 34 33 32 33 35 37 37 38 39 40 41 41 40 39 37 34 31 30 31 33 34 35 35 36 37 38 39 39 40
30 31 30 31 32 31 31 31 30 30 31 31 31 32 32 33 33 34 34 33 32 33 37 38 35 33 34 34 33 33 34 36 36 37 37 36 35 35 37 39 39 39 39 38 40 41 40 39 38 35 34 34 35 36 37 36 37 38 38 38 38 39 39
37 36 35 35 35 35 35 35 36 36 35 36 36 37 36 35 35 34 33 32 30 31 36 37 35 33 33 32 31 31 33 34 36 37 39 39 39 39 39 40 41 41 40 40 41 41 40 40 41 40 40 38 37 38 38 37 37 38 39 39 39 39 40
41 41 40 40 40 40 40 41 42 41 39 38 36 34 33 32 31 30 29 29 31 33 35 36 35 34 33 32 32 33 34 35 36 38 39 40 41 42 41 41 42 42 41 39 41 43 43 44 44 44 43 40 38 38 38 37 37 38 38 39 40 40 41
43 43 42 42 42 42 43 43 42 42 40 37 34 32 30 30 30 30 30 32 34 35 36 37 37 37 37 37 38 39 40 40 40 41 43 44 45 46 43 41 43 44 43 42 42 45 46 45 45 44 43 41 39 38 38 37 37 37 38 39 40 41 43
45 43 41 42 43 43 43 43 42 41 40 37 35 34 34 35 36 37 39 40 41 42 43 44 44 44 45 46 47 47 48 48 47 48 48 48 49 48 45 44 45 45 45 44 43 45 47 48 47 47 45 43 40 39 38 38 37 38 40 42 43 44 45
48 44 44 46 47 46 46 45 44 44 42 41 40 41 42 43 46 47 48 49 49 50 50 50 50 50 51 52 52 52 52 51 51 52 52 52 53 51 48 48 48 49 49 47 46 48 50 50 50 49 45 42 41 40 38 37 38 40 43 45 45 46 45
49 48 48 49 48 47 45 45 47 48 49 49 50 51 52 53 54 54 54 54 54 54 54 55 55 54 54 55 56 56 55 55 55 55 54 54 53 50 47 47 48 49 50 49 48 48 49 49 49 47 45 43 42 40 38 37 40 43 45 45 45 45 44
48 49 49 49 48 48 49 51 53 55 56 57 57 57 57 58 58 59 59 58 57 56 56 57 57 57 56 56 55 55 56 56 56 54 52 52 51 47 45 46 47 48 49 49 47 46 48 49 48 46 45 44 42 39 38 40 42 43 44 45 44 44 44
54 54 54 54 54 55 56 58 59 60 61 61 61 61 62 61 62 62 62 61 60 59 58 58 59 58 57 55 55 56 56 55 54 53 53 53 51 47 45 44 45 48 50 48 46 46 49 51 50 47 46 45 41 39 41 43 44 43 43 44 44 44 45
61 61 61 61 61 61 62 62 62 63 63 64 64 64 64 64 64 64 63 63 63 63 62 61 60 59 58 58 58 57 54 53 54 53 51 50 48 46 44 43 46 50 51 47 45 46 49 51 49 47 46 43 41 42 45 45 45 44 44 44 45 45 46
62 62 62 63 63 63 64 64 64 64 64 65 65 66 66 66 66 65 65 65 64 64 64 62 60 59 60 60 59 57 56 57 58 53 48 46 43 42 43 44 46 50 51 49 47 47 49 48 46 45 44 42 42 46 47 46 46 46 46 46 46 46 46

ECMWFFLT1_500_spd_027.txt.gz
Wind_Speed
12 14 18 19 19 16 14 15 14 13 12 11 10 9 8 7 6 5 5 6 5 5 5 5 6 6 7 7 7 7 7 8 8 8 8 8 7 6 5 5 6 7 8 7 6 6 6 7 6 5 6 7 9 9 10 10 10 11 12 13 13 11 11
10 15 18 20 19 16 14 14 13 12 12 11 11 10 10 9 9 8 8 8 8 7 6 6 6 6 6 6 7 7 8 9 9 9 9 9 9 8 6 6 7 8 8 7 6 5 6 5 4 5 6 8 9 9 8 9 10 11 11 12 11 11 11
12 17 19 18 17 15 14 13 12 12 11 11 11 11 10 10 11 11 11 11 11 10 10 10 9 9 8 8 7 7 8 9 9 9 10 10 10 9 8 8 10 9 8 6 6 6 6 5 5 6 7 8 8 9 8 8 9 10 10 10 10 10 11
16 19 18 16 16 15 14 13 12 12 11 10 10 11 11 11 12 12 13 12 12 13 13 13 13 12 11 10 9 8 9 9 9 9 10 11 10 10 10 11 11 10 8 7 7 7 7 6 6 7 7 8 8 8 9 8 9 10 10 10 9 9 9
21 21 19 16 15 15 14 12 11 11 10 10 10 11 11 12 12 13 13 13 12 13 14 14 14 14 13 12 12 11 10 10 9 9 10 10 10 11 11 12 11 10 9 8 7 8 7 6 7 7 8 7 7 8 9 8 8 9 9 9 8 7 7
22 21 18 15 14 13 12 11 11 11 10 9 9 10 11 11 12 11 12 12 12 13 14 14 15 14 14 13 12 11 11 11 10 10 10 10 9 10 11 11 11 10 8 7 8 8 6 6 7 9 7 6 6 7 7 7 8 8 8 8 8 7 7
20 18 15 13 13 12 12 11 11 11 10 10 10 10 10 10 9 10 11 11 12 13 14 15 14 13 13 12 12 11 11 11 11 10 9 9 9 9 9 9 9 9 8 8 8 8 6 6 8 8 6 4 5 6 6 6 7 7 8 8 8 7 7
15 15 13 13 13 13 12 11 11 11 11 10 9 9 9 9 9 10 11 11 12 13 14 15 15 14 13 12 12 12 12 12 11 11 10 9 8 8 8 8 9 9 8 8 9 8 6 6 6 6 4 4 5 5 5 6 6 7 7 8 8 8 7
11 12 13 13 14 14 14 12 12 12 12 11 10 9 8 9 9 10 11 11 11 12 13 14 16 16 15 15 15 14 14 13 12 12 11 10 9 9 9 9 9 9 9 8 8 7 6 5 4 4 3 4 5 6 6 6 6 7 7 8 8 8 8
10 11 13 15 16 17 16 14 13 13 13 12 11 9 8 9 9 10 11 11 10 11 12 13 15 17 17 17 17 16 15 14 14 13 12 11 10 10 9 9 9 9 8 8 8 7 6 5 4 4 4 4 6 7 6 6 7 7 8 9 9 9 10
11 13 16 17 18 19 18 17 15 14 14 13 11 9 9 8 9 10 11 11 11 11 11 13 14 17 18 18 17 16 15 15 14 13 12 12 11 11 10 10 10 9 9 9 9 8 8 7 7 7 6 6 7 7 7 8 8 9 9 10 10 11 11
13 14 15 16 18 20 21 20 17 16 15 14 12 10 9 9 10 10 11 11 11 11 12 13 14 16 18 18 18 17 16 15 14 13 12 11 11 11 11 10 10 10 10 10 10 11 10 10 10 9 9 8 9 9 10 10 10 10 11 11 12 12 12
14 14 15 15 17 19 21 20 18 16 16 15 14 12 11 10 11 11 11 11 11 11 12 13 14 15 16 17 18 17 17 15 14 13 12 11 11 10 10 10 10 10 10 11 12 12 12 12 12 11 10 11 11 11 12 12 11 12 12 13 13 13 13
15 16 15 15 16 18 20 19 17 16 16 15 15 15 13 12 12 12 12 12 11 11 13 14 14 14 14 14 15 16 16 15 15 14 13 12 11 11 10 10 10 10 11 12 12 12 11 11 11 12 12 12 12 12 13 13 13 13 13 13 13 13 13
16 16 16 16 15 15 17 19 19 18 18 18 18 17 16 15 14 13 12 12 11 11 13 15 15 15 14 14 14 14 15 15 15 14 14 13 12 11 11 10 10 11 11 12 12 12 12 12 13 14 14 13 12 12 12 13 13 13 13 13 13 13 13
18 17 17 18 16 15 17 19 21 22 23 22 21 20 18 16 15 14 13 12 12 12 13 15 16 15 14 13 13 14 14 14 14 14 14 14 13 12 12 11 11 11 12 13 13 13 12 13 14 16 16 14 13 12 12 13 14 14 13 13 12 13 13
20 19 19 19 19 19 19 21 23 25 25 24 22 21 19 17 16 15 14 13 14 14 15 16 16 15 14 13 13 13 13 14 14 14 14 14 14 13 13 12 11 12 13 14 15 15 14 14 15 16 17 17 16 15 14 14 14 15 15 15 15 15 15
21 21 21 21 21 21 21 22 23 24 23 22 22 20 19 17 15 15 15 15 15 16 17 17 16 15 13 13 13 13 14 14 14 15 15 15 15 15 14 14 14 14 15 16 16 17 16 16 16 17 18 18 19 19 19 18 17 17 17 17 18 19 19
22 22 22 22 22 21 21 21 21 22 21 21 21 20 18 17 16 16 16 16 16 17 17 17 16 15 14 13 14 14 15 15 15 16 16 16 16 16 16 17 17 17 18 18 19 20 20 19 19 19 20 20 20 22 24 23 22 21 21 21 21 22 22
23 23 22 20 19 18 18 18 19 19 20 20 19 19 18 17 16 16 16 16 17 17 18 17 17 17 16 15 15 15 16 17 17 17 17 17 16 16 16 17 18 19 20 21 21 22 23 23 22 22 23 23 23 24 26 28 27 26 25 26 25 25 24
22 20 18 16 15 15 15 15 16 17 17 18 18 18 17 18 17 18 18 18 18 19 19 19 19 19 18 17 18 18 19 19 19 18 18 19 18 18 18 18 19 20 21 22 23 24 25 26 26 26 26 26 27 27 28 30 32 31 29 29 28 27 26
19 17 16 15 15 15 14 15 15 15 16 17 17 17 18 18 19 19 19 19 19 20 21 21 21 21 21 21 22 22 22 22 22 21 21 21 22 22 22 22 22 22 23 24 25 26 26 27 29 30 31 31 31 30 30 30 33 34 32 31 30 29 28
19 18 16 15 15 15 15 15 15 16 16 16 17 17 18 19 19 20 20 20 20 21 22 23 24 24 24 24 25 26 26 26 25 24 24 24 25 25 25 25 26 26 26 27 27 27 27 28 29 31 33 35 35 35 33 32 33 34 33 33 32 31 29
20 19 17 14 14 16 16 16 17 17 17 18 19 19 20 21 21 21 21 21 21 21 22 24 25 26 26 26 27 28 29 29 29 29 29 29 29 28 28 28 29 29 29 29 29 29 29 29 29 30 32 34 36 38 37 36 34 33 32 32 32 31 30
20 20 18 13 13 16 18 18 18 19 20 21 22 22 22 23 23 23 23 22 22 22 23 25 26 28 28 28 28 28 29 30 31 33 34 34 33 32 32 31 31 32 32 32 32 33 34 33 33 33 34 33 34 37 38 38 36 33 31 30 30 31 32
21 23 23 21 19 18 19 20 21 21 22 23 24 24 24 24 25 24 24 25 26 26 27 27 28 29 29 29 29 28 27 27 29 31 34 35 35 35 35 35 34 34 34 34 35 35 35 36 36 37 36 36 36 36 36 36 36 34 32 31 32 33 34
25 29 31 31 27 23 23 24 25 25 25 26 27 27 27 27 27 27 27 29 30 31 31 31 32 32 31 30 29 29 29 27 27 28 30 32 33 33 33 33 34 35 35 35 36 36 35 36 37 37 37 37 38 37 37 36 36 35 34 35 36 37 37
31 33 34 34 32 30 29 29 29 29 29 29 30 31 31 31 30 31 32 33 35 35 36 35 34 33 32 30 29 29 30 29 28 29 30 31 33 34 35 35 35 36 36 37 39 39 39 40 41 40 39 37 36 37 38 39 38 38 38 39 40 41 40
35 36 36 36 35 34 33 33 33 33 33 34 34 36 36 35 35 36 37 37 37 37 36 34 32 31 30 30 31 31 32 32 33 33 33 33 35 37 39 40 39 39 40 41 43 44 44 44 45 44 43 39 37 37 39 40 40 39 39 40 41 41 41
38 38 38 37 36 36 36 36 36 37 38 38 38 39 40 39 38 37 37 37 36 34 33 32 31 31 31 32 34 35 36 38 39 39 39 39 41 42 43 44 44 45 46 47 48 48 46 46 46 45 44 41 40 41 41 40 40 40 39 40 41 42 42
41 40 40 40 40 40 40 40 40 41 41 41 41 42 42 42 39 37 36 35 34 34 33 33 33 33 34 36 38 40 42 44 44 44 44 44 44 45 47 47 47 49 50 50 50 49 48 47 46 45 45 44 45 45 43 42 41 42 42 42 43 43 42
43 43 44 44 45 45 45 45 45 45 45 45 45 45 45 45 43 42 41 38 37 37 36 36 37 38 40 42 45 47 47 47 47 47 48 48 47 47 48 49 49 49 49 47 47 47 46 45 44 44 44 45 46 46 44 43 42 42 42 42 42 42 42
45 46 47 48 48 49 50 51 51 50 50 49 49 48 49 49 49 49 47 43 42 42 42 43 44 46 47 49 50 50 50 49 49 50 51 50 50 50 51 51 50 49 47 46 45 44 43 43 43 43 44 46 46 45 44 44 43 42 41 40 40 42 43
48 48 49 50 50 51 52 52 52 51 50 50 49 49 50 51 52 53 52 49 47 48 49 50 51 53 53 53 53 53 52 52 52 52 53 53 52 53 54 53 52 51 50 48 45 42 42 44 45 46 47 49 49 47 46 46 45 42 41 41 41 42 43
46 47 47 47 47 47 48 49 49 49 50 50 50 50 51 52 54 55 55 54 54 56 57 57 58 58 57 57 57 56 55 55 54 54 54 54 54 54 54 53 53 52 51 48 45 42 42 43 44 45 47 49 51 51 48 46 44 42 41 42 42 42 43
51 51 51 51 52 52 53 54 55 56 57 57 57 57 58 59 59 59 60 61 62 63 63 63 62 61 60 59 59 59 58 57 56 56 55 54 54 54 54 54 53 52 50 49 48 46 43 43 44 44 45 47 50 51 50 48 45 42 43 44 44 43 42
56 57 57 58 59 59 60 61 62 63 64 64 64 64 64 65 66 65 65 66 66 66 66 65 64 63 62 61 61 60 59 58 56 55 55 55 55 55 56 55 54 52 50 48 45 42 41 42 44 44 45 46 48 50 52 50 46 43 45 46 45 43 41

ECMWFFLT1_500_spd_030.txt.gz
Wind_Speed
10 9 9 7 6 5 5 6 7 8 8 8 7 8 8 8 7 6 5 4 4 4 5 7 8 8 9 9 9 9 9 9 10 10 10 10 10 10 10 9 8 8 9 10 10 9 9 9 10 10 10 9 9 11 12 14 14 14 13 12 12 12 12
11 10 8 6 4 4 4 5 6 7 7 7 7 8 8 8 8 8 7 6 5 5 6 7 7 9 9 10 10 9 9 10 10 11 11 11 11 10 9 8 7 7 8 9 10 10 10 10 11 11 11 11 12 13 13 14 14 13 12 11 12 11 11
13 12 10 7 5 5 4 4 5 6 6 7 7 7 7 7 8 8 8 8 8 8 8 8 9 10 10 10 11 10 10 10 10 11 11 12 11 10 9 8 7 7 8 9 9 9 10 10 10 11 12 13 13 14 14 14 13 12 11 11 11 10 10
17 17 15 10 7 7 5 5 5 6 7 7 7 7 7 7 7 8 9 9 9 10 10 10 10 11 12 13 13 13 12 12 12 11 12 12 11 10 9 9 8 8 8 9 9 9 9 9 10 11 12 13 14 13 13 13 12 11 10 10 10 10 9
21 20 17 13 9 8 6 6 6 6 6 7 7 7 7 7 7 8 9 9 9 9 9 9 10 11 12 13 14 14 14 14 13 12 13 14 13 12 11 10 9 8 9 9 8 8 9 9 10 11 11 13 14 14 13 13 12 11 9 9 9 9 8
21 20 17 13 10 8 7 6 6 6 6 7 7 7 7 7 7 7 8 8 8 8 9 9 10 10 11 13 13 13 13 13 12 12 14 14 14 13 12 10 9 9 9 9 8 9 10 10 10 10 11 13 14 13 13 13 12 10 9 8 8 8 8
18 17 15 12 10 9 8 7 7 6 7 7 7 7 7 7 7 8 8 9 9 10 10 10 11 11 12 12 12 12 11 10 10 11 12 13 13 12 12 11 11 11 11 10 9 10 11 11 10 10 12 13 13 13 13 13 12 10 9 8 8 8 8
14 14 13 11 10 10 9 8 8 7 7 8 7 7 7 7 7 8 8 10 10 10 10 10 10 12 13 13 12 11 10 10 10 10 11 12 12 12 12 12 11 11 11 10 11 12 13 11 10 11 13 13 12 12 13 12 12 11 10 9 8 8 8
11 11 9 8 10 10 9 9 8 8 8 8 8 8 8 8 8 8 7 7 7 8 9 8 8 9 11 13 13 12 11 11 11 11 11 12 12 12 12 12 12 11 12 12 13 14 14 12 11 12 13 12 11 12 12 11 11 11 11 10 8 8 8
10 9 8 8 10 11 10 10 10 9 10 10 9 10 10 10 9 8 7 5 5 6 7 6 6 6 8 11 13 13 13 12 12 12 12 12 12 12 13 12 12 13 13 13 14 14 13 12 11 12 12 12 11 11 11 11 11 12 12 12 10 9 9
10 9 9 10 11 12 13 12 12 11 11 11 11 11 12 12 10 9 7 6 6 7 6 5 5 5 6 8 10 12 13 13 13 13 13 13 13 13 13 13 12 13 12 12 13 13 12 11 11 12 13 13 12 12 12 12 12 12 13 13 12 12 11
12 11 11 12 13 14 15 14 14 13 13 13 13 13 13 13 12 11 9 8 8 8 7 6 5 5 7 8 9 11 12 13 13 13 13 13 13 13 13 12 12 12 12 11 11 10 10 10 11 12 13 13 12 12 12 13 13 13 13 12 13 13 13
16 15 13 13 14 15 15 15 15 15 14 14 14 14 14 14 14 13 12 11 10 9 9 7 5 6 7 8 9 10 11 12 12 12 13 13 13 13 12 12 12 12 11 10 9 9 10 11 11 12 13 12 13 13 12 13 13 13 13 13 13 13 13
19 18 16 16 16 16 16 16 17 17 16 16 15 15 15 16 15 15 14 13 12 11 10 8 6 6 7 9 10 10 10 10 10 11 11 12 11 11 11 12 12 12 12 11 10 10 10 11 11 12 12 12 12 13 13 13 14 14 14 13 13 13 13
22 21 19 19 19 18 17 17 18 18 18 17 16 16 16 17 17 16 16 15 13 11 10 8 7 8 8 10 10 11 10 10 10 10 11 10 10 11 11 12 12 13 12 12 12 11 11 11 10 10 10 11 11 12 13 14 14 13 13 12 12 12 13
24 24 22 21 21 20 19 19 19 20 19 19 18 18 18 18 17 17 16 15 13 12 10 9 9 9 10 10 11 11 11 11 11 11 10 10 10 11 11 12 12 12 12 13 13 12 12 12 11 10 10 10 11 12 13 13 13 12 13 13 12 12 13
25 25 24 23 22 21 20 20 21 21 21 21 20 20 19 19 18 17 16 15 13 12 11 10 10 10 11 11 11 12 11 11 11 11 11 11 12 13 13 13 13 13 13 13 13 13 13 13 13 13 12 11 12 12 13 14 14 14 14 15 15 15 14
26 27 26 24 23 23 22 22 22 22 22 21 20 19 19 18 17 16 15 15 14 13 13 12 12 12 12 12 13 13 13 13 13 13 13 13 13 14 15 14 14 14 14 14 14 14 15 15 15 16 15 14 13 13 14 15 16 16 17 17 18 18 18
24 26 25 24 24 24 24 23 22 22 21 20 19 18 17 17 16 16 15 15 15 14 14 14 14 14 14 14 14 14 14 14 14 14 14 14 14 15 15 15 14 14 14 14 15 15 16 16 17 17 18 17 17 16 16 17 17 19 20 20 21 21 22
25 26 25 23 24 25 24 23 22 21 20 20 19 18 17 17 16 16 16 16 16 15 14 14 14 15 15 15 15 15 16 16 16 16 16 16 16 16 15 15 15 15 15 16 16 17 17 18 18 18 19 19 20 20 20 20 20 21 22 22 23 24 25
29 29 26 24 24 24 24 23 22 22 21 21 20 19 18 18 18 18 18 18 17 16 15 14 15 15 16 16 16 16 16 17 17 18 18 19 19 19 19 18 18 18 18 19 19 20 20 20 20 20 20 21 21 21 22 23 24 24 25 25 25 26 26
28 27 26 24 24 24 24 23 23 23 23 22 21 20 20 20 20 20 20 20 19 18 18 17 17 17 18 18 18 18 18 19 19 19 20 21 22 23 23 23 23 23 23 23 24 24 23 23 23 23 23 23 23 23 24 25 26 28 28 28 28 28 29
24 23 22 22 22 24 25 24 23 23 22 22 22 22 22 22 22 22 22 21 21 21 20 20 20 21 21 21 21 21 20 20 20 20 20 21 23 24 25 26 26 26 27 27 27 27 26 26 27 27 27 27 27 28 28 29 29 30 31 31 31 30 30
19 19 20 21 22 23 23 22 22 21 21 22 23 23 23 23 23 23 23 23 23 23 23 23 23 24 23 23 23 23 22 22 21 21 21 21 22 23 25 26 27 28 29 29 30 29 29 29 29 30 30 30 30 31 31 31 31 31 32 33 34 33 32
17 19 21 22 22 22 22 21 21 21 21 22 22 22 23 23 24 24 24 25 25 25 26 26 26 26 26 25 25 24 24 24 24 24 23 22 22 22 23 25 26 27 28 29 30 30 30 30 30 30 31 32 32 32 32 32 33 34 34 34 35 35 34
19 21 23 23 23 23 23 22 21 21 22 23 22 22 22 23 24 25 26 27 27 27 28 28 28 28 28 28 27 27 27 27 27 27 26 25 24 24 24 24 25 26 27 27 28 28 28 28 29 30 31 32 33 33 34 34 36 37 38 38 38 38 36
22 23 23 23 24 24 24 24 22 20 21 23 24 24 25 25 26 27 29 30 30 29 29 29 29 30 30 31 31 31 31 31 30 29 29 28 28 27 27 27 27 28 28 28 29 29 29 29 31 32 33 34 36 38 40 41 41 41 41 41 41 40 37
24 25 26 26 27 28 29 30 28 25 25 27 27 27 28 28 28 29 31 32 32 32 32 32 32 32 33 34 35 36 36 36 35 34 32 31 31 30 30 31 31 32 33 33 33 33 33 34 36 37 38 39 41 44 46 47 46 44 44 43 42 41 39
28 28 29 30 31 31 32 33 33 33 34 33 31 31 31 32 32 33 34 34 34 34 35 36 36 36 36 37 38 40 41 41 41 39 37 35 34 33 32 33 34 36 37 38 38 38 38 40 41 42 43 43 44 46 48 50 51 50 48 46 44 42 41
32 32 33 34 34 34 34 35 37 37 37 36 35 35 35 36 37 37 38 38 38 38 39 40 41 41 42 42 42 43 44 44 44 43 41 39 37 35 34 35 36 38 40 41 42 42 42 43 44 45 46 45 45 46 49 51 52 51 50 49 47 46 44
35 35 36 37 37 37 38 39 39 38 38 39 39 38 39 39 40 40 40 41 41 42 43 44 45 46 46 46 45 45 44 44 44 44 43 41 38 37 36 37 40 41 43 44 44 45 45 46 47 48 47 47 47 47 47 48 48 49 50 51 51 49 47
39 38 39 40 40 40 40 41 41 41 42 42 42 41 42 42 43 43 43 44 45 46 47 47 48 48 49 48 47 45 44 44 45 46 45 44 42 41 40 42 45 45 45 46 46 48 49 49 50 50 49 49 48 47 45 46 48 49 50 50 50 49 47
41 41 42 42 43 44 44 44 45 46 46 44 44 44 44 44 45 46 47 47 48 48 48 48 48 49 49 49 48 47 46 46 47 48 48 48 47 46 45 47 50 50 49 49 49 50 51 51 52 52 50 50 49 46 45 47 48 49 48 49 50 49 48
40 41 42 43 44 45 45 46 46 47 46 45 45 46 47 47 48 49 49 49 49 49 48 48 47 48 49 50 51 50 50 50 50 52 52 52 51 51 52 55 57 55 53 51 51 51 52 53 53 52 51 49 47 46 46 47 47 47 48 49 49 49 48
37 39 40 40 41 42 42 43 44 45 45 46 46 47 47 47 47 47 47 47 47 47 47 47 47 48 50 51 52 53 52 52 54 55 56 56 57 59 60 61 60 57 54 53 52 53 54 54 53 52 51 50 48 47 47 48 48 48 48 48 48 47 47
41 42 42 43 44 46 47 47 48 49 50 51 51 52 51 51 50 50 50 50 51 52 53 54 54 55 56 57 58 59 59 59 61 62 62 63 64 64 63 61 59 57 55 55 55 55 56 56 55 53 52 51 50 48 47 48 48 48 48 49 49 48 46
48 47 48 48 49 50 51 51 52 52 53 54 55 55 55 55 55 55 56 56 57 58 59 60 60 61 61 61 62 63 64 65 66 67 68 68 67 66 63 61 60 59 59 58 58 57 57 57 56 55 54 52 49 47 47 48 47 46 48 49 49 48 46

ECMWFFLT1_500_spd_033.txt.gz
Wind_Speed
21 17 15 14 12 11 11 10 9 9 9 9 9 9 10 10 10 10 11 11 10 10 10 10 10 10 10 9 9 9 9 9 10 10 11 11 11 11 11 11 12 12 12 13 13 13 13 13 13 13 14 15 16 15 15 15 14 15 16 16 16 16 16
21 17 15 14 13 12 11 10 11 10 10 11 10 10 11 11 12 11 11 10 10 9 9 9 9 9 9 9 10 10 10 10 10 11 11 11 11 10 10 9 10 12 12 12 13 14 14 14 14 15 16 16 16 16 16 15 15 15 16 16 16 15 16
21 18 16 16 15 13 11 10 10 11 11 11 10 9 10 11 12 12 12 11 11 10 10 10 10 10 10 10 11 11 11 11 11 12 12 12 11 11 10 9 10 11 11 12 14 15 15 15 16 16 17 16 16 16 15 15 15 16 16 15 14 15 15
22 20 18 17 16 14 11 10 10 11 11 10 9 9 10 10 11 12 12 12 12 12 12 12 12 12 12 13 13 14 14 14 14 14 14 14 13 12 11 10 11 12 12 13 15 15 15 16 16 17 17 16 16 16 16 15 16 16 16 14 14 14 15
25 23 21 20 19 15 13 11 11 11 10 10 9 10 10 11 11 11 11 12 12 13 13 13 14 14 14 15 15 15 15 16 16 15 15 15 15 14 12 12 12 13 14 14 14 14 14 15 16 17 16 16 16 16 16 16 16 16 15 14 13 13 14
28 26 25 24 22 18 14 13 13 12 11 11 11 11 12 12 12 11 12 12 12 12 13 13 13 13 14 14 14 13 14 15 15 15 15 15 15 14 13 13 13 14 14 14 14 14 14 15 16 17 17 17 17 17 17 17 17 16 15 14 14 13 14
28 28 27 26 23 19 16 14 14 14 13 13 13 12 12 12 12 12 12 12 12 12 12 12 12 13 13 13 13 13 12 12 12 12 12 12 12 12 12 13 13 14 14 15 15 14 13 14 16 17 18 18 18 18 18 18 18 17 15 15 14 14 13
28 28 27 26 24 21 18 16 16 15 15 14 14 13 13 12 12 12 11 11 11 12 12 12 12 13 13 13 13 13 11 10 10 10 9 9 10 10 11 12 13 14 14 15 15 14 14 15 17 19 19 19 18 17 17 18 18 17 16 15 14 14 13
26 25 25 24 23 21 19 18 17 16 15 15 14 13 13 13 12 12 12 11 11 11 12 12 11 11 11 11 11 11 11 10 10 10 10 10 10 10 11 12 13 14 14 15 15 15 16 17 19 20 19 18 18 17 16 16 17 17 16 15 14 14 14
22 21 21 21 21 21 20 19 18 17 16 15 14 14 14 13 13 12 12 12 12 11 10 10 10 10 9 8 8 9 9 10 10 11 11 10 10 11 12 13 13 14 14 15 16 17 18 19 19 19 19 18 18 18 17 17 17 16 15 15 15 14 14
19 18 19 19 20 21 20 19 18 17 16 15 14 14 14 14 13 13 12 12 12 11 10 9 9 9 8 7 6 6 7 7 8 9 10 10 10 11 12 12 13 14 15 16 17 18 18 19 19 19 18 18 18 18 18 18 18 17 16 16 16 15 15
15 15 16 18 18 18 17 17 17 17 16 15 15 14 14 14 14 13 13 13 13 12 10 9 9 9 7 6 5 5 5 5 6 7 8 9 10 11 12 13 14 15 15 16 17 18 18 18 19 18 18 18 17 17 18 19 19 20 19 18 18 17 17
14 14 15 17 17 15 14 14 14 15 15 15 15 14 15 14 14 14 13 13 13 13 12 11 11 10 8 6 5 5 5 5 5 6 6 7 9 10 12 13 14 15 16 16 17 17 17 18 18 18 18 18 18 18 19 20 20 21 21 20 19 18 18
16 16 16 17 17 15 14 13 14 14 15 15 14 14 15 15 14 15 15 14 14 14 13 12 12 11 9 7 6 5 5 5 5 5 6 6 8 9 11 12 13 14 15 16 16 17 17 18 18 18 18 18 19 19 19 20 21 21 20 20 20 19 18
18 18 18 18 18 17 16 15 15 16 16 16 15 15 16 16 16 16 16 15 15 14 14 13 12 11 9 7 6 6 5 6 6 6 7 7 8 8 10 11 12 13 14 15 16 16 17 17 18 18 18 18 19 19 19 20 20 19 19 19 19 19 18
20 20 19 19 20 20 19 18 18 18 18 18 17 17 18 18 18 18 17 16 15 15 14 13 12 11 10 8 7 7 7 7 7 7 8 8 8 9 9 9 10 11 12 13 14 15 15 16 16 16 16 16 17 17 17 17 17 17 17 18 18 18 17
22 21 20 20 22 22 21 21 21 21 21 20 19 19 19 20 19 19 18 16 15 15 15 15 14 13 12 11 10 9 9 8 8 8 9 9 9 9 9 9 10 10 11 11 12 13 13 13 13 14 14 14 14 15 15 15 15 15 16 17 17 18 18
22 20 19 21 24 24 23 24 24 23 22 21 20 20 20 21 21 19 18 17 17 17 16 16 16 16 15 13 12 11 11 10 10 10 10 10 10 10 10 10 10 11 11 11 11 11 11 11 11 12 12 12 13 13 14 14 14 15 16 17 17 18 20
22 20 20 22 23 24 25 26 25 24 23 23 22 21 20 21 21 20 19 18 18 18 18 18 17 17 16 15 14 13 13 12 11 11 12 12 12 12 11 11 11 11 11 11 12 12 12 12 12 12 12 12 12 13 14 14 15 15 16 16 17 18 20
22 23 24 25 24 24 25 25 24 23 24 24 23 21 21 21 21 20 19 18 18 18 19 19 18 17 17 16 15 15 14 13 13 13 14 15 15 14 14 14 14 14 14 14 14 14 15 15 15 16 16 16 15 15 15 16 16 16 16 17 19 20 21
21 23 26 27 27 25 24 23 22 23 23 23 23 23 22 22 22 20 20 19 19 19 20 20 19 19 18 18 17 16 16 16 16 16 17 17 17 17 17 17 17 17 17 17 17 17 17 18 19 20 20 20 19 18 17 17 18 19 20 21 21 22 23
21 22 26 28 28 26 25 25 25 25 23 23 24 24 24 24 23 22 21 21 20 20 21 21 20 20 19 19 19 19 19 19 19 19 19 19 20 19 19 19 18 18 18 18 18 19 19 19 20 21 22 22 22 22 21 20 20 20 21 21 22 22 23
21 22 24 27 28 27 27 28 27 26 25 24 25 26 26 25 24 24 23 22 21 21 21 21 21 21 20 20 20 21 21 21 21 21 21 21 21 21 21 20 20 19 19 19 19 19 19 19 20 21 22 23 24 24 23 21 21 21 22 22 23 24 24
20 21 21 22 24 26 27 26 24 25 26 26 27 27 27 26 25 25 24 24 23 22 22 22 22 23 23 23 23 23 23 23 23 24 24 23 23 23 23 22 22 21 21 21 21 20 21 21 21 22 23 23 24 24 24 24 24 24 25 26 27 27 28
21 20 17 16 19 22 24 22 21 23 26 27 28 28 27 26 25 25 25 25 24 23 23 23 24 24 25 25 25 25 26 26 26 26 26 26 25 25 25 25 24 24 23 23 23 23 23 23 24 25 25 25 26 26 27 28 28 29 29 29 30 31 32
22 21 18 16 17 19 22 22 21 22 23 23 24 26 26 26 26 26 26 25 25 25 25 25 25 26 27 27 28 28 29 29 29 29 28 28 28 28 28 28 27 27 26 26 26 25 25 26 27 28 28 29 30 31 32 32 33 33 34 36 36 36 37
24 24 23 21 20 21 23 24 23 22 22 23 24 26 26 26 26 26 26 26 27 26 26 26 27 28 29 30 30 30 31 31 31 31 31 31 31 31 31 31 31 31 30 30 29 28 27 27 28 29 30 31 33 34 35 36 36 38 40 41 42 42 42
26 27 26 25 25 26 27 26 26 25 26 27 29 29 28 27 26 26 26 27 27 27 27 28 29 30 31 32 32 32 32 33 33 33 34 34 34 35 35 36 35 35 35 34 34 33 31 30 31 31 32 34 35 37 38 39 40 40 41 43 44 45 45
28 29 29 28 29 30 30 29 29 30 31 31 30 29 28 26 25 25 26 27 29 30 31 31 31 32 33 34 34 35 35 36 37 37 37 38 38 38 39 40 40 40 40 39 37 36 35 34 34 33 34 36 38 39 40 41 41 41 41 43 45 47 48
28 30 30 30 30 30 29 30 31 32 33 32 31 30 30 30 30 30 30 30 32 34 35 36 36 36 36 36 36 37 38 39 40 41 42 42 42 42 43 43 43 43 43 41 39 38 39 38 36 36 38 40 40 41 40 41 42 43 44 45 46 48 49
31 32 32 31 31 30 30 30 32 33 34 34 33 33 34 35 37 38 37 35 35 37 39 40 40 39 39 39 40 41 42 43 44 45 45 45 46 47 47 46 45 45 44 42 41 42 43 42 41 41 42 42 42 42 43 45 47 48 47 46 47 48 50
31 32 32 32 32 32 33 33 34 35 36 37 37 38 38 39 41 42 42 41 40 40 42 43 43 43 43 43 44 44 45 46 47 48 48 48 48 49 49 49 48 47 45 45 45 46 45 45 45 44 45 45 45 46 47 48 50 52 51 49 49 50 51
31 32 33 33 33 34 36 36 37 37 38 39 40 41 42 43 43 44 45 45 45 45 46 47 47 47 47 47 48 48 49 50 50 51 51 51 51 51 51 51 50 48 47 48 49 48 46 46 47 49 50 52 52 51 51 52 55 56 55 53 52 52 52
34 34 35 35 35 36 38 39 39 40 40 40 40 41 43 45 45 46 46 47 49 49 50 50 50 50 50 50 51 51 51 51 51 52 52 52 52 52 52 53 53 52 52 52 52 52 50 51 52 54 56 56 56 56 57 58 59 59 57 56 55 54 53
41 39 38 39 39 40 40 41 42 43 43 44 44 45 45 47 48 48 49 49 50 50 49 49 49 50 50 51 51 50 50 50 51 51 51 50 50 50 51 52 54 55 55 55 55 55 56 57 57 57 59 60 61 62 61 60 60 60 58 57 56 54 54
46 46 46 46 46 46 45 43 43 44 45 46 47 48 48 47 48 48 49 50 50 50 50 50 51 52 53 53 53 53 53 54 54 55 54 54 53 54 55 55 56 57 58 59 59 59 59 60 60 61 64 65 65 65 63 60 60 61 59 57 56 55 54
49 49 49 49 49 48 48 47 45 46 47 48 49 50 50 50 51 51 52 52 52 53 53 54 55 55 56 56 56 56 56 56 57 58 58 58 58 59 59 60 61 62 62 63 64 64 64 64 65 65 67 67 67 66 64 62 62 62 60 58 57 55 53

ECMWFFLT1_500_spd_036.txt.gz
Wind_Speed
25 25 23 21 20 19 18 16 15 15 15 14 13 13 13 13 13 13 13 13 13 13 12 12 11 10 9 9 8 8 8 9 10 10 10 10 10 11 11 11 11 11 12 12 12 13 13 14 14 15 15 16 17 17 17 18 19 20 19 18 18 18 18
25 24 23 22 22 20 19 17 18 18 16 15 14 14 13 13 13 12 12 12 12 12 12 12 12 11 10 10 9 9 9 9 9 9 9 9 10 11 11 10 11 11 12 12 12 13 14 14 15 15 16 16 17 16 17 19 20 20 18 18 18 19 19
25 25 25 25 24 22 20 19 19 19 17 16 15 14 13 13 13 13 13 12 12 12 11 11 11 11 11 10 10 10 10 9 9 9 9 9 9 10 10 10 11 12 13 13 13 14 15 15 16 16 16 16 16 16 17 18 19 19 18 19 19 19 19
27 28 28 27 25 23 21 20 19 18 16 15 14 14 14 13 14 15 15 15 14 13 13 11 11 11 11 11 11 11 11 11 11 10 10 9 9 9 10 10 11 12 13 13 14 15 15 16 16 15 16 16 16 16 16 17 18 18 19 19 20 20 19
29 31 30 28 25 23 22 21 20 18 16 15 15 15 15 15 15 15 16 16 16 16 15 14 14 14 14 14 14 14 14 14 13 13 13 12 11 11 11 11 11 12 13 13 14 15 16 16 15 15 15 16 16 16 16 17 17 18 19 20 20 20 20
30 30 28 27 25 24 23 22 20 17 15 15 15 16 16 16 16 15 16 16 16 16 16 15 16 15 16 16 15 15 15 15 15 15 14 13 12 11 11 11 11 11 12 13 14 15 16 16 15 15 16 16 16 17 17 17 17 18 19 20 20 21 20
29 28 26 25 25 24 24 22 19 16 15 15 15 16 17 16 16 15 15 15 15 15 15 15 15 15 15 15 14 15 15 15 14 13 12 12 10 9 9 9 10 11 12 12 14 15 16 16 16 16 16 16 17 18 18 18 18 19 19 20 20 20 20
30 29 27 25 24 24 22 20 17 14 14 15 16 17 17 16 15 14 13 13 13 13 14 14 14 14 14 14 14 14 15 15 14 12 10 9 8 7 8 8 10 11 11 12 13 14 15 16 16 16 17 17 18 18 19 19 19 19 20 20 20 20 20
31 30 29 27 26 24 22 20 18 16 15 16 17 17 16 15 14 13 12 13 13 13 13 13 13 13 14 14 14 15 16 15 14 12 10 9 9 9 9 10 11 11 12 13 14 14 15 15 16 17 18 18 19 19 19 19 19 19 20 19 19 20 20
29 29 29 28 27 26 24 23 23 20 18 18 18 16 16 15 14 13 13 13 13 13 13 13 13 13 13 13 13 14 15 15 14 12 11 11 12 11 11 11 11 12 13 14 14 15 15 15 16 17 18 19 19 19 19 19 19 19 19 19 20 20 20
26 26 27 26 25 25 25 25 24 21 20 19 18 17 17 17 15 14 14 14 14 13 13 13 12 12 12 11 11 12 12 12 13 13 13 13 13 13 12 12 12 13 14 14 15 15 15 15 16 17 18 18 18 18 18 18 18 18 19 19 20 20 21
22 23 23 22 22 23 24 25 23 21 21 20 19 19 18 18 17 16 16 16 15 14 13 13 13 12 11 11 11 11 10 11 12 13 13 13 13 13 13 14 14 14 14 15 15 15 15 15 16 17 17 18 17 17 17 17 18 18 19 19 20 21 21
20 20 19 19 19 20 21 22 22 21 21 21 20 20 19 19 18 17 17 17 16 16 15 14 14 13 11 11 12 12 11 11 12 13 13 14 14 14 14 14 14 14 14 14 14 15 16 16 17 18 18 18 18 18 18 18 19 19 20 20 21 21 21
19 18 16 15 16 17 18 19 20 21 21 21 21 21 21 21 20 18 18 18 18 17 16 15 15 14 12 13 13 13 13 13 13 13 14 14 14 14 14 13 13 13 13 14 14 15 16 17 17 18 18 18 18 19 19 20 20 20 20 20 20 20 21
18 16 15 14 14 15 16 17 17 18 19 20 21 22 23 22 21 20 20 20 20 19 18 16 16 15 14 14 14 14 14 13 13 14 14 14 13 13 13 12 12 12 13 14 15 15 16 17 17 17 17 17 18 18 19 19 19 19 19 19 19 19 18
19 17 16 15 14 14 15 15 15 16 18 19 20 21 22 21 21 21 21 22 21 21 19 18 17 16 15 15 15 15 15 14 14 14 13 13 12 12 12 12 12 12 13 14 14 15 15 15 16 16 16 17 17 17 17 17 17 17 18 18 18 17 17
21 18 17 17 16 15 16 16 16 17 18 18 18 19 20 20 20 21 21 22 22 22 21 19 18 17 16 16 16 17 17 16 15 13 12 12 11 11 12 12 13 13 14 14 14 15 15 15 15 15 15 15 15 15 15 16 16 17 17 17 17 17 17
22 21 20 19 18 17 17 17 18 20 20 20 19 20 20 20 21 20 21 21 22 22 21 21 19 18 18 18 18 19 18 17 16 14 13 12 11 11 12 13 13 14 14 14 14 14 14 13 13 13 13 13 13 13 14 15 15 16 16 17 17 17 17
23 23 22 21 20 18 17 17 19 21 22 22 22 21 21 22 21 20 20 21 22 23 22 22 21 21 20 20 20 21 20 18 17 16 14 13 12 12 12 13 13 13 13 13 13 12 12 12 12 12 12 12 13 14 14 15 15 16 16 17 17 18 17
25 23 23 22 20 19 18 18 19 21 21 22 23 23 22 22 21 20 21 21 22 23 24 24 24 23 23 22 22 22 21 20 18 17 16 14 14 14 14 13 14 14 14 14 14 13 13 14 14 14 14 15 16 16 17 17 17 17 17 18 18 19 19
27 24 22 22 20 19 20 20 19 20 21 21 22 23 23 23 23 22 22 22 23 24 24 24 25 25 24 24 24 23 23 21 19 18 18 17 16 16 16 16 16 16 16 16 16 16 16 16 17 17 17 17 17 18 18 18 19 19 20 20 20 21 21
21 21 20 21 20 20 21 20 19 20 20 19 19 20 21 23 24 24 23 23 24 24 25 25 25 25 24 24 24 23 22 21 20 19 19 18 17 18 18 18 18 19 19 18 18 18 18 18 18 18 17 17 17 17 17 18 19 20 21 21 21 21 21
18 18 20 21 20 20 21 21 21 21 21 20 19 20 22 23 25 25 24 24 25 25 25 25 25 25 25 24 23 23 22 21 21 20 20 20 20 20 21 21 21 22 21 21 21 20 19 19 19 19 18 18 18 17 17 18 18 19 20 21 22 22 22
20 20 20 20 20 20 21 22 23 23 23 22 22 23 24 24 25 26 26 26 27 27 26 26 26 25 25 25 24 23 23 22 22 22 22 22 23 24 24 24 24 24 24 24 23 23 22 21 21 21 21 20 20 20 19 19 20 20 21 22 23 25 26
20 19 19 20 20 20 21 22 24 24 23 23 23 23 23 24 25 26 27 28 28 28 28 28 27 27 27 26 25 25 24 24 24 24 24 25 26 26 27 27 27 27 27 27 26 25 25 24 24 24 24 24 24 23 23 23 23 23 24 25 26 27 28
19 18 19 20 21 21 21 22 24 24 23 22 22 22 23 23 25 27 28 29 30 30 30 30 29 28 27 27 26 26 26 26 26 26 27 27 28 29 29 30 30 30 29 29 29 28 28 28 28 28 29 28 28 27 27 26 26 27 27 28 29 30 31
19 19 20 21 22 23 23 23 23 23 22 22 22 22 23 24 26 27 28 29 30 31 31 30 29 29 28 27 27 26 26 27 27 28 29 30 31 31 32 32 32 32 32 32 32 31 31 32 32 33 33 33 33 32 32 31 31 32 31 31 31 32 34
24 23 22 22 23 25 26 25 24 23 23 23 23 23 25 26 27 29 29 30 30 31 31 30 30 29 29 28 28 28 28 29 30 30 31 32 33 33 34 34 35 35 35 35 35 35 35 36 36 37 37 38 38 38 37 37 38 37 36 36 36 36 37
19 18 19 20 21 22 24 24 23 23 23 24 25 26 28 29 30 31 31 31 31 32 32 31 31 31 30 30 30 31 31 32 32 33 33 34 35 35 36 37 37 37 38 38 38 39 40 40 41 40 41 42 42 42 42 42 42 41 40 40 40 40 42
17 14 16 17 17 19 21 21 22 23 25 27 28 28 28 28 30 31 32 32 33 34 34 34 33 32 31 31 33 34 34 34 34 35 35 36 36 37 38 39 40 41 41 41 42 42 43 44 44 44 45 45 45 44 44 45 45 44 43 43 44 45 47
23 21 22 21 21 22 24 25 26 27 27 29 29 28 27 27 28 30 31 33 35 36 36 36 35 34 33 34 35 37 38 38 38 39 39 40 40 40 41 42 43 43 44 44 45 45 46 47 47 48 48 48 47 45 44 44 45 46 47 47 47 46 46
26 25 26 25 25 25 26 28 30 30 29 29 29 29 29 29 30 31 32 34 36 37 37 37 38 39 40 40 41 41 41 42 42 42 43 44 45 45 46 46 46 46 46 47 48 48 49 49 49 50 50 49 49 48 46 46 46 47 49 49 46 45 46
29 28 28 27 25 25 26 27 28 29 29 31 32 33 34 34 33 33 34 35 37 38 39 40 42 45 47 47 47 46 46 46 46 46 46 47 48 49 49 49 49 49 49 50 52 53 53 53 52 53 53 52 51 50 49 49 49 50 51 51 50 52 54
31 30 30 29 27 27 27 27 27 26 27 29 31 33 35 37 37 37 37 38 39 41 42 44 46 48 49 50 50 50 50 50 50 51 51 51 52 53 53 52 51 52 52 53 54 55 55 54 54 54 54 54 53 52 52 54 54 54 55 55 55 56 58
34 33 33 32 31 31 32 33 33 33 33 34 35 35 36 37 38 38 38 38 39 41 43 44 46 48 50 51 52 52 52 53 53 54 55 55 55 54 54 54 53 53 53 53 53 53 54 54 55 55 54 54 55 55 56 58 59 60 61 60 60 60 61
38 38 38 38 39 39 39 40 41 41 41 42 42 42 42 43 43 44 44 43 44 45 46 47 49 51 53 54 54 54 55 55 55 56 56 56 55 55 55 55 55 55 55 55 56 57 58 59 59 59 58 57 57 58 59 60 62 64 65 65 65 66 66
45 46 47 48 48 48 48 47 47 48 48 49 49 50 51 51 51 52 52 52 52 52 52 53 54 54 54 55 55 56 56 57 58 58 58 57 57 58 58 58 59 59 60 60 61 61 62 62 62 62 63 63 63 64 64 65 66 67 67 68 69 69 69